Wetterdaten: Dienstag, 05.09.2023
Datum Zeit Temp. Aussen Temp. o. S. Temp +5cm Feuchte Auss Luftdruck Regen Sonnenschein Regendauer Solar Windben Empfang
05.09.2023 00:00 20,4 C 19,4 C 16,1 C 73 % 1021,4 hPa 0,0 l/m 0 min 0 min 0 W/m 6,4 km/h (2 Bft) 95,74 %
05.09.2023 00:02 20,4 C 19,4 C 16,1 C 73 % 1021,4 hPa 0,0 l/m 0 min 0 min 0 W/m 6,4 km/h (2 Bft) 95,24 %
05.09.2023 00:04 20,5 C 19,4 C 16,1 C 73 % 1021,3 hPa 0,0 l/m 0 min 0 min 0 W/m 12,9 km/h (3 Bft) 97,62 %
05.09.2023 00:07 20,5 C 19,4 C 16,1 C 73 % 1021,3 hPa 0,0 l/m 0 min 0 min 0 W/m 6,4 km/h (2 Bft) 97,56 %
05.09.2023 00:08 20,5 C 19,4 C 16,1 C 73 % 1021,4 hPa 0,0 l/m 0 min 0 min 0 W/m 6,4 km/h (2 Bft) 100,00 %
05.09.2023 00:12 20,5 C 19,4 C 16,1 C 73 % 1021,3 hPa 0,0 l/m 0 min 0 min 0 W/m 12,9 km/h (3 Bft) 100,00 %
05.09.2023 00:19 20,4 C 19,4 C 16,1 C 73 % 1021,2 hPa 0,0 l/m 0 min 0 min 0 W/m 16,1 km/h (3 Bft) 100,00 %
05.09.2023 00:20 20,4 C 19,4 C 16,1 C 72 % 1021,2 hPa 0,0 l/m 0 min 0 min 0 W/m 12,9 km/h (3 Bft) 100,00 %
05.09.2023 00:26 20,4 C 19,4 C 15,6 C 72 % 1021,2 hPa 0,0 l/m 0 min 0 min 0 W/m 6,4 km/h (2 Bft) 98,73 %
05.09.2023 00:28 20,4 C 19,4 C 15,6 C 72 % 1021,1 hPa 0,0 l/m 0 min 0 min 0 W/m 3,2 km/h (1 Bft) 97,30 %
05.09.2023 00:30 20,4 C 19,4 C 15,6 C 72 % 1021,1 hPa 0,0 l/m 0 min 0 min 0 W/m 12,9 km/h (3 Bft) 97,87 %
05.09.2023 00:32 20,4 C 19,4 C 15,6 C 72 % 1021,1 hPa 0,0 l/m 0 min 0 min 0 W/m 9,7 km/h (2 Bft) 95,83 %
05.09.2023 00:34 20,4 C 19,4 C 15,6 C 72 % 1021,1 hPa 0,0 l/m 0 min 0 min 0 W/m 9,7 km/h (2 Bft) 100,00 %
05.09.2023 00:36 20,4 C 19,4 C 15,6 C 72 % 1021,0 hPa 0,0 l/m 0 min 0 min 0 W/m 12,9 km/h (3 Bft) 100,00 %
05.09.2023 00:38 20,4 C 19,4 C 15,6 C 72 % 1021,1 hPa 0,0 l/m 0 min 0 min 0 W/m 6,4 km/h (2 Bft) 95,74 %
05.09.2023 00:40 20,4 C 19,4 C 15,6 C 71 % 1021,0 hPa 0,0 l/m 0 min 0 min 0 W/m 12,9 km/h (3 Bft) 100,00 %
05.09.2023 00:42 20,4 C 19,4 C 16,1 C 71 % 1021,0 hPa 0,0 l/m 0 min 0 min 0 W/m 22,5 km/h (4 Bft) 100,00 %
05.09.2023 00:44 20,4 C 19,4 C 16,1 C 71 % 1021,0 hPa 0,0 l/m 0 min 0 min 0 W/m 12,9 km/h (3 Bft) 97,87 %
05.09.2023 00:46 20,4 C 19,4 C 16,1 C 71 % 1021,0 hPa 0,0 l/m 0 min 0 min 0 W/m 9,7 km/h (2 Bft) 97,87 %
05.09.2023 00:48 20,4 C 19,4 C 16,1 C 71 % 1021,0 hPa 0,0 l/m 0 min 0 min 0 W/m 9,7 km/h (2 Bft) 97,83 %
05.09.2023 00:50 20,4 C 19,4 C 15,6 C 71 % 1021,0 hPa 0,0 l/m 0 min 0 min 0 W/m 12,9 km/h (3 Bft) 97,87 %
05.09.2023 00:52 20,4 C 19,4 C 15,6 C 71 % 1021,0 hPa 0,0 l/m 0 min 0 min 0 W/m 9,7 km/h (2 Bft) 97,87 %
05.09.2023 00:54 20,4 C 19,4 C 15,6 C 71 % 1020,9 hPa 0,0 l/m 0 min 0 min 0 W/m 6,4 km/h (2 Bft) 95,74 %
05.09.2023 00:56 20,4 C 19,4 C 15,6 C 71 % 1020,9 hPa 0,0 l/m 0 min 0 min 0 W/m 9,7 km/h (2 Bft) 97,87 %
05.09.2023 00:58 20,4 C 19,4 C 15,6 C 71 % 1020,9 hPa 0,0 l/m 0 min 0 min 0 W/m 9,7 km/h (2 Bft) 97,87 %
05.09.2023 01:00 20,4 C 19,4 C 15,6 C 71 % 1020,9 hPa 0,0 l/m 0 min 0 min 0 W/m 6,4 km/h (2 Bft) 97,87 %
05.09.2023 01:02 20,4 C 19,4 C 15,6 C 71 % 1020,8 hPa 0,0 l/m 0 min 0 min 0 W/m 12,9 km/h (3 Bft) 93,48 %
05.09.2023 01:04 20,4 C 19,4 C 15,6 C 71 % 1020,8 hPa 0,0 l/m 0 min 0 min 0 W/m 12,9 km/h (3 Bft) 97,78 %
05.09.2023 01:06 20,4 C 19,4 C 15,6 C 71 % 1020,8 hPa 0,0 l/m 0 min 0 min 0 W/m 9,7 km/h (2 Bft) 97,87 %
05.09.2023 01:08 20,4 C 19,4 C 15,6 C 71 % 1020,8 hPa 0,0 l/m 0 min 0 min 0 W/m 6,4 km/h (2 Bft) 97,87 %
05.09.2023 01:10 20,4 C 19,4 C 15,6 C 71 % 1020,7 hPa 0,0 l/m 0 min 0 min 0 W/m 6,4 km/h (2 Bft) 97,87 %
05.09.2023 01:12 20,4 C 19,4 C 15,6 C 71 % 1020,8 hPa 0,0 l/m 0 min 0 min 0 W/m 3,2 km/h (1 Bft) 97,83 %
05.09.2023 01:14 20,4 C 19,4 C 15,6 C 71 % 1020,8 hPa 0,0 l/m 0 min 0 min 0 W/m 12,9 km/h (3 Bft) 97,87 %
05.09.2023 01:16 20,3 C 19,4 C 15,6 C 71 % 1020,8 hPa 0,0 l/m 0 min 0 min 0 W/m 6,4 km/h (2 Bft) 100,00 %
05.09.2023 01:18 20,3 C 19,4 C 15,6 C 71 % 1020,8 hPa 0,0 l/m 0 min 0 min 0 W/m 6,4 km/h (2 Bft) 100,00 %
05.09.2023 01:20 20,3 C 19,4 C 15,6 C 71 % 1020,8 hPa 0,0 l/m 0 min 0 min 0 W/m 6,4 km/h (2 Bft) 100,00 %
05.09.2023 01:22 20,3 C 18,9 C 15,6 C 71 % 1020,8 hPa 0,0 l/m 0 min 0 min 0 W/m 6,4 km/h (2 Bft) 100,00 %
05.09.2023 01:24 20,3 C 18,9 C 15,6 C 71 % 1020,8 hPa 0,0 l/m 0 min 0 min 0 W/m 6,4 km/h (2 Bft) 100,00 %
05.09.2023 01:26 20,3 C 18,9 C 15,6 C 71 % 1020,8 hPa 0,0 l/m 0 min 0 min 0 W/m 6,4 km/h (2 Bft) 100,00 %
05.09.2023 01:28 20,2 C 18,9 C 15,6 C 71 % 1020,8 hPa 0,0 l/m 0 min 0 min 0 W/m 12,9 km/h (3 Bft) 97,87 %
05.09.2023 01:30 20,2 C 18,9 C 15,6 C 71 % 1020,8 hPa 0,0 l/m 0 min 0 min 0 W/m 3,2 km/h (1 Bft) 100,00 %
05.09.2023 01:32 20,1 C 18,9 C 15,0 C 72 % 1020,7 hPa 0,0 l/m 0 min 0 min 0 W/m 3,2 km/h (1 Bft) 100,00 %
05.09.2023 01:34 20,1 C 18,9 C 15,0 C 72 % 1020,8 hPa 0,0 l/m 0 min 0 min 0 W/m 3,2 km/h (1 Bft) 100,00 %
05.09.2023 01:36 20,1 C 18,9 C 15,0 C 72 % 1020,8 hPa 0,0 l/m 0 min 0 min 0 W/m 12,9 km/h (3 Bft) 100,00 %
05.09.2023 01:38 20,0 C 18,9 C 15,0 C 72 % 1020,7 hPa 0,0 l/m 0 min 0 min 0 W/m 6,4 km/h (2 Bft) 97,87 %
05.09.2023 01:40 19,9 C 18,9 C 15,0 C 72 % 1020,7 hPa 0,0 l/m 0 min 0 min 0 W/m 6,4 km/h (2 Bft) 100,00 %
05.09.2023 01:42 19,9 C 18,9 C 15,0 C 73 % 1020,7 hPa 0,0 l/m 0 min 0 min 0 W/m 6,4 km/h (2 Bft) 100,00 %
05.09.2023 01:44 19,9 C 18,3 C 15,0 C 72 % 1020,7 hPa 0,0 l/m 0 min 0 min 0 W/m 6,4 km/h (2 Bft) 97,87 %
05.09.2023 01:46 19,8 C 18,3 C 15,0 C 73 % 1020,7 hPa 0,0 l/m 0 min 0 min 0 W/m 6,4 km/h (2 Bft) 95,74 %
05.09.2023 01:48 19,8 C 18,3 C 15,0 C 73 % 1020,7 hPa 0,0 l/m 0 min 0 min 0 W/m 6,4 km/h (2 Bft) 97,87 %
05.09.2023 01:50 19,8 C 18,3 C 15,0 C 73 % 1020,7 hPa 0,0 l/m 0 min 0 min 0 W/m 6,4 km/h (2 Bft) 95,74 %
05.09.2023 01:52 19,7 C 18,3 C 15,0 C 73 % 1020,7 hPa 0,0 l/m 0 min 0 min 0 W/m 6,4 km/h (2 Bft) 95,65 %
05.09.2023 01:54 19,7 C 18,3 C 15,0 C 73 % 1020,6 hPa 0,0 l/m 0 min 0 min 0 W/m 6,4 km/h (2 Bft) 97,87 %
05.09.2023 01:56 19,6 C 18,3 C 15,0 C 74 % 1020,6 hPa 0,0 l/m 0 min 0 min 0 W/m 6,4 km/h (2 Bft) 95,74 %
05.09.2023 01:58 19,6 C 18,3 C 15,0 C 74 % 1020,6 hPa 0,0 l/m 0 min 0 min 0 W/m 6,4 km/h (2 Bft) 97,87 %
05.09.2023 02:00 19,6 C 18,3 C 15,0 C 74 % 1020,6 hPa 0,0 l/m 0 min 0 min 0 W/m 6,4 km/h (2 Bft) 97,87 %
05.09.2023 02:02 19,5 C 18,3 C 15,0 C 74 % 1020,6 hPa 0,0 l/m 0 min 0 min 0 W/m 6,4 km/h (2 Bft) 93,62 %
05.09.2023 02:04 19,5 C 18,3 C 15,0 C 74 % 1020,6 hPa 0,0 l/m 0 min 0 min 0 W/m 6,4 km/h (2 Bft) 94,00 %
05.09.2023 02:06 19,4 C 18,3 C 15,0 C 74 % 1020,5 hPa 0,0 l/m 0 min 0 min 0 W/m 16,1 km/h (3 Bft) 95,74 %
05.09.2023 02:08 19,4 C 18,3 C 15,0 C 74 % 1020,5 hPa 0,0 l/m 0 min 0 min 0 W/m 6,4 km/h (2 Bft) 95,74 %
05.09.2023 02:10 19,4 C 18,3 C 15,0 C 74 % 1020,5 hPa 0,0 l/m 0 min 0 min 0 W/m 6,4 km/h (2 Bft) 94,29 %
05.09.2023 02:14 19,4 C 18,9 C 15,0 C 73 % 1020,5 hPa 0,0 l/m 0 min 0 min 0 W/m 16,1 km/h (3 Bft) 100,00 %
05.09.2023 02:16 19,4 C 18,9 C 15,0 C 73 % 1020,4 hPa 0,0 l/m 0 min 0 min 0 W/m 6,4 km/h (2 Bft) 93,62 %
05.09.2023 02:18 19,4 C 18,9 C 15,0 C 73 % 1020,4 hPa 0,0 l/m 0 min 0 min 0 W/m 12,9 km/h (3 Bft) 94,29 %
05.09.2023 02:20 19,5 C 18,9 C 15,0 C 73 % 1020,3 hPa 0,0 l/m 0 min 0 min 0 W/m 12,9 km/h (3 Bft) 95,74 %
05.09.2023 02:22 19,5 C 18,9 C 15,0 C 73 % 1020,3 hPa 0,0 l/m 0 min 0 min 0 W/m 16,1 km/h (3 Bft) 95,74 %
05.09.2023 02:24 19,5 C 18,9 C 15,0 C 73 % 1020,4 hPa 0,0 l/m 0 min 0 min 0 W/m 16,1 km/h (3 Bft) 95,74 %
05.09.2023 02:26 19,6 C 18,9 C 15,0 C 73 % 1020,4 hPa 0,0 l/m 0 min 0 min 0 W/m 12,9 km/h (3 Bft) 95,74 %
05.09.2023 02:28 19,6 C 18,9 C 15,0 C 73 % 1020,4 hPa 0,0 l/m 0 min 0 min 0 W/m 12,9 km/h (3 Bft) 95,74 %
05.09.2023 02:30 19,6 C 18,9 C 15,0 C 73 % 1020,4 hPa 0,0 l/m 0 min 0 min 0 W/m 9,7 km/h (2 Bft) 95,65 %
05.09.2023 02:32 19,6 C 18,9 C 15,0 C 72 % 1020,4 hPa 0,0 l/m 0 min 0 min 0 W/m 19,3 km/h (3 Bft) 93,62 %
05.09.2023 02:34 19,6 C 18,9 C 15,0 C 72 % 1020,4 hPa 0,0 l/m 0 min 0 min 0 W/m 12,9 km/h (3 Bft) 97,87 %
05.09.2023 02:36 19,6 C 18,9 C 15,0 C 72 % 1020,4 hPa 0,0 l/m 0 min 0 min 0 W/m 6,4 km/h (2 Bft) 95,74 %
05.09.2023 02:38 19,6 C 18,9 C 15,0 C 72 % 1020,4 hPa 0,0 l/m 0 min 0 min 0 W/m 12,9 km/h (3 Bft) 95,74 %
05.09.2023 02:40 19,6 C 18,9 C 15,0 C 72 % 1020,4 hPa 0,0 l/m 0 min 0 min 0 W/m 16,1 km/h (3 Bft) 95,74 %
05.09.2023 02:42 19,6 C 18,9 C 15,0 C 72 % 1020,4 hPa 0,0 l/m 0 min 0 min 0 W/m 12,9 km/h (3 Bft) 93,48 %
05.09.2023 02:44 19,6 C 18,9 C 15,0 C 72 % 1020,5 hPa 0,0 l/m 0 min 0 min 0 W/m 16,1 km/h (3 Bft) 95,74 %
05.09.2023 02:46 19,7 C 18,9 C 15,0 C 72 % 1020,5 hPa 0,0 l/m 0 min 0 min 0 W/m 12,9 km/h (3 Bft) 95,74 %
05.09.2023 02:48 19,7 C 18,9 C 15,0 C 72 % 1020,5 hPa 0,0 l/m 0 min 0 min 0 W/m 6,4 km/h (2 Bft) 95,74 %
05.09.2023 02:50 19,6 C 18,9 C 15,0 C 72 % 1020,5 hPa 0,0 l/m 0 min 0 min 0 W/m 3,2 km/h (1 Bft) 95,74 %
05.09.2023 02:52 19,6 C 18,3 C 15,0 C 72 % 1020,5 hPa 0,0 l/m 0 min 0 min 0 W/m 3,2 km/h (1 Bft) 91,49 %
05.09.2023 02:54 19,6 C 18,3 C 15,0 C 72 % 1020,5 hPa 0,0 l/m 0 min 0 min 0 W/m 9,7 km/h (2 Bft) 97,83 %
05.09.2023 02:56 19,6 C 18,3 C 15,0 C 72 % 1020,5 hPa 0,0 l/m 0 min 0 min 0 W/m 6,4 km/h (2 Bft) 97,87 %
05.09.2023 02:58 19,6 C 18,3 C 15,0 C 72 % 1020,5 hPa 0,0 l/m 0 min 0 min 0 W/m 3,2 km/h (1 Bft) 98,18 %
05.09.2023 03:00 19,6 C 18,3 C 15,0 C 73 % 1020,5 hPa 0,0 l/m 0 min 0 min 0 W/m 3,2 km/h (1 Bft) 98,00 %
05.09.2023 03:02 19,6 C 18,3 C 15,0 C 73 % 1020,5 hPa 0,0 l/m 0 min 0 min 0 W/m 6,4 km/h (2 Bft) 97,87 %
05.09.2023 03:04 19,5 C 18,3 C 14,4 C 73 % 1020,5 hPa 0,0 l/m 0 min 0 min 0 W/m 6,4 km/h (2 Bft) 97,96 %
05.09.2023 03:06 19,5 C 18,3 C 14,4 C 73 % 1020,5 hPa 0,0 l/m 0 min 0 min 0 W/m 6,4 km/h (2 Bft) 95,74 %
05.09.2023 03:08 19,4 C 18,3 C 14,4 C 73 % 1020,4 hPa 0,0 l/m 0 min 0 min 0 W/m 6,4 km/h (2 Bft) 100,00 %
05.09.2023 03:10 19,4 C 18,3 C 14,4 C 73 % 1020,5 hPa 0,0 l/m 0 min 0 min 0 W/m 12,9 km/h (3 Bft) 100,00 %
05.09.2023 03:12 19,4 C 18,3 C 14,4 C 73 % 1020,5 hPa 0,0 l/m 0 min 0 min 0 W/m 6,4 km/h (2 Bft) 100,00 %
05.09.2023 03:14 19,4 C 18,3 C 14,4 C 73 % 1020,5 hPa 0,0 l/m 0 min 0 min 0 W/m 6,4 km/h (2 Bft) 100,00 %
05.09.2023 03:16 19,3 C 18,3 C 14,4 C 73 % 1020,5 hPa 0,0 l/m 0 min 0 min 0 W/m 6,4 km/h (2 Bft) 100,00 %
05.09.2023 03:18 19,3 C 18,3 C 14,4 C 73 % 1020,4 hPa 0,0 l/m 0 min 0 min 0 W/m 6,4 km/h (2 Bft) 100,00 %
05.09.2023 03:20 19,3 C 18,3 C 14,4 C 73 % 1020,5 hPa 0,0 l/m 0 min 0 min 0 W/m 3,2 km/h (1 Bft) 97,87 %
05.09.2023 03:22 19,3 C 18,3 C 14,4 C 73 % 1020,5 hPa 0,0 l/m 0 min 0 min 0 W/m 6,4 km/h (2 Bft) 97,87 %
05.09.2023 03:24 19,3 C 18,3 C 14,4 C 74 % 1020,4 hPa 0,0 l/m 0 min 0 min 0 W/m 6,4 km/h (2 Bft) 100,00 %
05.09.2023 03:26 19,2 C 17,8 C 14,4 C 74 % 1020,5 hPa 0,0 l/m 0 min 0 min 0 W/m 3,2 km/h (1 Bft) 100,00 %
05.09.2023 03:28 19,2 C 17,8 C 14,4 C 74 % 1020,4 hPa 0,0 l/m 0 min 0 min 0 W/m 6,4 km/h (2 Bft) 100,00 %
05.09.2023 03:30 19,2 C 17,8 C 14,4 C 74 % 1020,4 hPa 0,0 l/m 0 min 0 min 0 W/m 6,4 km/h (2 Bft) 100,00 %
05.09.2023 03:32 19,2 C 17,8 C 14,4 C 74 % 1020,4 hPa 0,0 l/m 0 min 0 min 0 W/m 3,2 km/h (1 Bft) 100,00 %
05.09.2023 03:34 19,1 C 17,8 C 14,4 C 74 % 1020,4 hPa 0,0 l/m 0 min 0 min 0 W/m 6,4 km/h (2 Bft) 100,00 %
05.09.2023 03:36 19,1 C 17,8 C 14,4 C 74 % 1020,4 hPa 0,0 l/m 0 min 0 min 0 W/m 6,4 km/h (2 Bft) 100,00 %
05.09.2023 03:38 19,1 C 17,8 C 14,4 C 74 % 1020,4 hPa 0,0 l/m 0 min 0 min 0 W/m 3,2 km/h (1 Bft) 100,00 %
05.09.2023 03:40 19,1 C 17,8 C 14,4 C 74 % 1020,4 hPa 0,0 l/m 0 min 0 min 0 W/m 6,4 km/h (2 Bft) 100,00 %
05.09.2023 03:42 19,1 C 17,8 C 14,4 C 74 % 1020,4 hPa 0,0 l/m 0 min 0 min 0 W/m 9,7 km/h (2 Bft) 97,87 %
05.09.2023 03:44 19,0 C 18,3 C 14,4 C 75 % 1020,4 hPa 0,0 l/m 0 min 0 min 0 W/m 6,4 km/h (2 Bft) 100,00 %
05.09.2023 03:46 19,0 C 18,3 C 14,4 C 75 % 1020,4 hPa 0,0 l/m 0 min 0 min 0 W/m 12,9 km/h (3 Bft) 100,00 %
05.09.2023 03:48 19,0 C 18,3 C 14,4 C 74 % 1020,4 hPa 0,0 l/m 0 min 0 min 0 W/m 6,4 km/h (2 Bft) 100,00 %
05.09.2023 03:50 19,0 C 18,3 C 14,4 C 74 % 1020,3 hPa 0,0 l/m 0 min 0 min 0 W/m 6,4 km/h (2 Bft) 100,00 %
05.09.2023 03:52 19,0 C 18,3 C 14,4 C 74 % 1020,3 hPa 0,0 l/m 0 min 0 min 0 W/m 9,7 km/h (2 Bft) 100,00 %
05.09.2023 03:54 19,1 C 18,3 C 14,4 C 74 % 1020,3 hPa 0,0 l/m 0 min 0 min 0 W/m 9,7 km/h (2 Bft) 100,00 %
05.09.2023 03:56 19,1 C 18,3 C 14,4 C 74 % 1020,3 hPa 0,0 l/m 0 min 0 min 0 W/m 6,4 km/h (2 Bft) 100,00 %
05.09.2023 03:58 19,1 C 18,3 C 14,4 C 74 % 1020,3 hPa 0,0 l/m 0 min 0 min 0 W/m 6,4 km/h (2 Bft) 100,00 %
05.09.2023 04:00 19,1 C 18,3 C 14,4 C 74 % 1020,2 hPa 0,0 l/m 0 min 0 min 0 W/m 9,7 km/h (2 Bft) 100,00 %
05.09.2023 04:02 19,1 C 18,3 C 14,4 C 74 % 1020,3 hPa 0,0 l/m 0 min 0 min 0 W/m 12,9 km/h (3 Bft) 100,00 %
05.09.2023 04:04 19,1 C 18,3 C 14,4 C 74 % 1020,3 hPa 0,0 l/m 0 min 0 min 0 W/m 16,1 km/h (3 Bft) 100,00 %
05.09.2023 04:06 19,2 C 18,3 C 14,4 C 74 % 1020,2 hPa 0,0 l/m 0 min 0 min 0 W/m 12,9 km/h (3 Bft) 100,00 %
05.09.2023 04:08 19,2 C 18,3 C 14,4 C 74 % 1020,2 hPa 0,0 l/m 0 min 0 min 0 W/m 6,4 km/h (2 Bft) 100,00 %
05.09.2023 04:10 19,2 C 18,3 C 14,4 C 73 % 1020,2 hPa 0,0 l/m 0 min 0 min 0 W/m 12,9 km/h (3 Bft) 100,00 %
05.09.2023 04:12 19,2 C 18,3 C 14,4 C 73 % 1020,2 hPa 0,0 l/m 0 min 0 min 0 W/m 9,7 km/h (2 Bft) 100,00 %
05.09.2023 04:14 19,2 C 18,3 C 14,4 C 73 % 1020,2 hPa 0,0 l/m 0 min 0 min 0 W/m 12,9 km/h (3 Bft) 95,74 %
05.09.2023 04:16 19,2 C 18,3 C 14,4 C 73 % 1020,2 hPa 0,0 l/m 0 min 0 min 0 W/m 6,4 km/h (2 Bft) 100,00 %
05.09.2023 04:18 19,2 C 18,3 C 14,4 C 73 % 1020,1 hPa 0,0 l/m 0 min 0 min 0 W/m 12,9 km/h (3 Bft) 97,87 %
05.09.2023 04:20 19,2 C 18,3 C 14,4 C 73 % 1020,2 hPa 0,0 l/m 0 min 0 min 0 W/m 9,7 km/h (2 Bft) 100,00 %
05.09.2023 04:22 19,2 C 18,3 C 15,0 C 72 % 1020,2 hPa 0,0 l/m 0 min 0 min 0 W/m 12,9 km/h (3 Bft) 100,00 %
05.09.2023 04:24 19,2 C 18,3 C 15,0 C 72 % 1020,1 hPa 0,0 l/m 0 min 0 min 0 W/m 12,9 km/h (3 Bft) 97,83 %
05.09.2023 04:26 19,3 C 18,3 C 14,4 C 72 % 1020,1 hPa 0,0 l/m 0 min 0 min 0 W/m 12,9 km/h (3 Bft) 100,00 %
05.09.2023 04:28 19,3 C 18,3 C 14,4 C 72 % 1020,1 hPa 0,0 l/m 0 min 0 min 0 W/m 12,9 km/h (3 Bft) 97,87 %
05.09.2023 04:30 19,3 C 18,3 C 14,4 C 72 % 1020,1 hPa 0,0 l/m 0 min 0 min 0 W/m 12,9 km/h (3 Bft) 95,74 %
05.09.2023 04:32 19,3 C 18,3 C 14,4 C 72 % 1020,2 hPa 0,0 l/m 0 min 0 min 0 W/m 9,7 km/h (2 Bft) 97,87 %
05.09.2023 04:34 19,3 C 18,3 C 14,4 C 72 % 1020,3 hPa 0,0 l/m 0 min 0 min 0 W/m 6,4 km/h (2 Bft) 97,87 %
05.09.2023 04:36 19,3 C 18,3 C 14,4 C 72 % 1020,2 hPa 0,0 l/m 0 min 0 min 0 W/m 6,4 km/h (2 Bft) 95,74 %
05.09.2023 04:38 19,3 C 18,3 C 14,4 C 72 % 1020,3 hPa 0,0 l/m 0 min 0 min 0 W/m 9,7 km/h (2 Bft) 95,65 %
05.09.2023 04:40 19,3 C 18,3 C 14,4 C 72 % 1020,3 hPa 0,0 l/m 0 min 0 min 0 W/m 19,3 km/h (3 Bft) 93,62 %
05.09.2023 04:42 19,3 C 18,3 C 14,4 C 72 % 1020,3 hPa 0,0 l/m 0 min 0 min 0 W/m 6,4 km/h (2 Bft) 95,74 %
05.09.2023 04:44 19,3 C 18,3 C 14,4 C 72 % 1020,3 hPa 0,0 l/m 0 min 0 min 0 W/m 9,7 km/h (2 Bft) 91,49 %
05.09.2023 04:46 19,3 C 18,3 C 14,4 C 72 % 1020,2 hPa 0,0 l/m 0 min 0 min 0 W/m 9,7 km/h (2 Bft) 95,74 %
05.09.2023 04:48 19,3 C 18,3 C 14,4 C 72 % 1020,3 hPa 0,0 l/m 0 min 0 min 0 W/m 9,7 km/h (2 Bft) 89,36 %
05.09.2023 04:50 19,3 C 18,3 C 14,4 C 72 % 1020,3 hPa 0,0 l/m 0 min 0 min 0 W/m 6,4 km/h (2 Bft) 91,30 %
05.09.2023 04:52 19,3 C 18,3 C 14,4 C 72 % 1020,3 hPa 0,0 l/m 0 min 0 min 0 W/m 12,9 km/h (3 Bft) 91,49 %
05.09.2023 04:54 19,3 C 18,3 C 14,4 C 72 % 1020,3 hPa 0,0 l/m 0 min 0 min 0 W/m 6,4 km/h (2 Bft) 93,62 %
05.09.2023 04:56 19,3 C 18,3 C 14,4 C 72 % 1020,3 hPa 0,0 l/m 0 min 0 min 0 W/m 6,4 km/h (2 Bft) 93,62 %
05.09.2023 04:58 19,3 C 18,3 C 14,4 C 72 % 1020,2 hPa 0,0 l/m 0 min 0 min 0 W/m 6,4 km/h (2 Bft) 93,62 %
05.09.2023 05:00 19,3 C 18,3 C 14,4 C 72 % 1020,3 hPa 0,0 l/m 0 min 0 min 0 W/m 12,9 km/h (3 Bft) 93,62 %
05.09.2023 05:02 19,3 C 18,3 C 14,4 C 72 % 1020,2 hPa 0,0 l/m 0 min 0 min 0 W/m 19,3 km/h (3 Bft) 95,74 %
05.09.2023 05:04 19,3 C 18,3 C 14,4 C 72 % 1020,3 hPa 0,0 l/m 0 min 0 min 0 W/m 12,9 km/h (3 Bft) 95,35 %
05.09.2023 05:06 19,3 C 18,3 C 14,4 C 72 % 1020,1 hPa 0,0 l/m 0 min 0 min 0 W/m 6,4 km/h (2 Bft) 94,83 %
05.09.2023 05:08 19,3 C 18,3 C 14,4 C 72 % 1020,1 hPa 0,0 l/m 0 min 0 min 0 W/m 6,4 km/h (2 Bft) 97,14 %
05.09.2023 05:10 19,3 C 18,3 C 14,4 C 72 % 1020,1 hPa 0,0 l/m 0 min 0 min 0 W/m 12,9 km/h (3 Bft) 93,62 %
05.09.2023 05:12 19,3 C 18,3 C 14,4 C 72 % 1020,1 hPa 0,0 l/m 0 min 0 min 0 W/m 12,9 km/h (3 Bft) 95,74 %
05.09.2023 05:14 19,2 C 18,3 C 14,4 C 72 % 1020,2 hPa 0,0 l/m 0 min 0 min 0 W/m 12,9 km/h (3 Bft) 95,74 %
05.09.2023 05:16 19,2 C 18,3 C 14,4 C 72 % 1020,2 hPa 0,0 l/m 0 min 0 min 0 W/m 9,7 km/h (2 Bft) 95,74 %
05.09.2023 05:18 19,2 C 18,3 C 14,4 C 72 % 1020,2 hPa 0,0 l/m 0 min 0 min 0 W/m 9,7 km/h (2 Bft) 95,74 %
05.09.2023 05:20 19,2 C 18,3 C 14,4 C 72 % 1020,2 hPa 0,0 l/m 0 min 0 min 0 W/m 6,4 km/h (2 Bft) 95,65 %
05.09.2023 05:22 19,2 C 18,3 C 14,4 C 72 % 1020,2 hPa 0,0 l/m 0 min 0 min 0 W/m 6,4 km/h (2 Bft) 93,62 %
05.09.2023 05:24 19,2 C 18,3 C 14,4 C 72 % 1020,2 hPa 0,0 l/m 0 min 0 min 0 W/m 9,7 km/h (2 Bft) 93,62 %
05.09.2023 05:26 19,2 C 18,3 C 14,4 C 72 % 1020,2 hPa 0,0 l/m 0 min 0 min 0 W/m 12,9 km/h (3 Bft) 97,87 %
05.09.2023 05:28 19,2 C 18,3 C 14,4 C 72 % 1020,3 hPa 0,0 l/m 0 min 0 min 0 W/m 12,9 km/h (3 Bft) 100,00 %
05.09.2023 05:30 19,2 C 18,3 C 14,4 C 72 % 1020,3 hPa 0,0 l/m 0 min 0 min 0 W/m 6,4 km/h (2 Bft) 100,00 %
05.09.2023 05:32 19,2 C 18,3 C 14,4 C 72 % 1020,3 hPa 0,0 l/m 0 min 0 min 0 W/m 6,4 km/h (2 Bft) 97,87 %
05.09.2023 05:34 19,2 C 18,3 C 14,4 C 72 % 1020,3 hPa 0,0 l/m 0 min 0 min 0 W/m 12,9 km/h (3 Bft) 100,00 %
05.09.2023 05:36 19,2 C 18,3 C 14,4 C 72 % 1020,2 hPa 0,0 l/m 0 min 0 min 0 W/m 6,4 km/h (2 Bft) 97,87 %
05.09.2023 05:38 19,2 C 18,3 C 14,4 C 72 % 1020,2 hPa 0,0 l/m 0 min 0 min 0 W/m 6,4 km/h (2 Bft) 100,00 %
05.09.2023 05:40 19,2 C 18,3 C 14,4 C 72 % 1020,2 hPa 0,0 l/m 0 min 0 min 0 W/m 6,4 km/h (2 Bft) 100,00 %
05.09.2023 05:42 19,1 C 18,3 C 14,4 C 72 % 1020,1 hPa 0,0 l/m 0 min 0 min 0 W/m 6,4 km/h (2 Bft) 97,87 %
05.09.2023 05:44 19,1 C 17,8 C 14,4 C 72 % 1020,2 hPa 0,0 l/m 0 min 0 min 0 W/m 3,2 km/h (1 Bft) 100,00 %
05.09.2023 05:46 19,1 C 17,8 C 14,4 C 72 % 1020,1 hPa 0,0 l/m 0 min 0 min 0 W/m 6,4 km/h (2 Bft) 100,00 %
05.09.2023 05:48 19,1 C 17,8 C 14,4 C 72 % 1020,1 hPa 0,0 l/m 0 min 0 min 0 W/m 16,1 km/h (3 Bft) 100,00 %
05.09.2023 05:50 19,1 C 17,8 C 13,9 C 72 % 1020,2 hPa 0,0 l/m 0 min 0 min 0 W/m 3,2 km/h (1 Bft) 100,00 %
05.09.2023 05:52 19,1 C 17,8 C 13,9 C 72 % 1020,3 hPa 0,0 l/m 0 min 0 min 0 W/m 6,4 km/h (2 Bft) 100,00 %
05.09.2023 05:54 19,0 C 17,8 C 13,9 C 72 % 1020,3 hPa 0,0 l/m 0 min 0 min 0 W/m 12,9 km/h (3 Bft) 97,87 %
05.09.2023 05:56 19,0 C 17,8 C 13,9 C 72 % 1020,2 hPa 0,0 l/m 0 min 0 min 0 W/m 6,4 km/h (2 Bft) 100,00 %
05.09.2023 05:58 19,0 C 17,8 C 13,9 C 72 % 1020,2 hPa 0,0 l/m 0 min 0 min 0 W/m 3,2 km/h (1 Bft) 100,00 %
05.09.2023 06:00 18,9 C 17,8 C 13,9 C 72 % 1020,2 hPa 0,0 l/m 0 min 0 min 0 W/m 3,2 km/h (1 Bft) 100,00 %
05.09.2023 06:02 18,9 C 17,8 C 13,9 C 73 % 1020,2 hPa 0,0 l/m 0 min 0 min 0 W/m 3,2 km/h (1 Bft) 97,83 %
05.09.2023 06:04 18,9 C 17,8 C 13,9 C 73 % 1020,2 hPa 0,0 l/m 0 min 0 min 0 W/m 3,2 km/h (1 Bft) 100,00 %
05.09.2023 06:08 18,9 C 17,8 C 13,9 C 73 % 1020,2 hPa 0,0 l/m 0 min 0 min 0 W/m 3,2 km/h (1 Bft) 100,00 %
05.09.2023 06:10 18,8 C 17,8 C 13,9 C 73 % 1020,2 hPa 0,0 l/m 0 min 0 min 0 W/m 6,4 km/h (2 Bft) 100,00 %
05.09.2023 06:12 18,8 C 17,8 C 13,9 C 73 % 1020,1 hPa 0,0 l/m 0 min 0 min 0 W/m 6,4 km/h (2 Bft) 100,00 %
05.09.2023 06:14 18,8 C 17,8 C 13,9 C 73 % 1020,2 hPa 0,0 l/m 0 min 0 min 0 W/m 3,2 km/h (1 Bft) 100,00 %
05.09.2023 06:16 18,8 C 17,2 C 13,9 C 73 % 1020,1 hPa 0,0 l/m 0 min 0 min 0 W/m 3,2 km/h (1 Bft) 100,00 %
05.09.2023 06:18 18,8 C 17,2 C 13,9 C 73 % 1020,1 hPa 0,0 l/m 0 min 0 min 0 W/m 3,2 km/h (1 Bft) 97,87 %
05.09.2023 06:20 18,7 C 17,2 C 13,9 C 73 % 1020,1 hPa 0,0 l/m 0 min 0 min 0 W/m 3,2 km/h (1 Bft) 100,00 %
05.09.2023 06:22 18,7 C 17,2 C 13,9 C 73 % 1020,1 hPa 0,0 l/m 0 min 0 min 0 W/m 3,2 km/h (1 Bft) 100,00 %
05.09.2023 06:24 18,7 C 17,2 C 13,9 C 74 % 1020,1 hPa 0,0 l/m 0 min 0 min 0 W/m 6,4 km/h (2 Bft) 95,74 %
05.09.2023 06:26 18,6 C 17,2 C 13,9 C 74 % 1020,1 hPa 0,0 l/m 0 min 0 min 0 W/m 3,2 km/h (1 Bft) 95,65 %
05.09.2023 06:28 18,6 C 17,2 C 13,9 C 74 % 1020,2 hPa 0,0 l/m 0 min 0 min 0 W/m 3,2 km/h (1 Bft) 97,87 %
05.09.2023 06:30 18,6 C 17,2 C 13,9 C 74 % 1020,1 hPa 0,0 l/m 0 min 0 min 0 W/m 3,2 km/h (1 Bft) 97,87 %
05.09.2023 06:32 18,5 C 17,2 C 13,9 C 74 % 1020,1 hPa 0,0 l/m 0 min 0 min 0 W/m 6,4 km/h (2 Bft) 97,87 %
05.09.2023 06:34 18,5 C 17,2 C 13,9 C 74 % 1020,1 hPa 0,0 l/m 0 min 0 min 0 W/m 3,2 km/h (1 Bft) 95,74 %
05.09.2023 06:36 18,4 C 17,2 C 13,9 C 74 % 1020,1 hPa 0,0 l/m 0 min 0 min 0 W/m 6,4 km/h (2 Bft) 95,74 %
05.09.2023 06:38 18,4 C 17,2 C 13,9 C 74 % 1020,1 hPa 0,0 l/m 0 min 0 min 0 W/m 6,4 km/h (2 Bft) 97,83 %
05.09.2023 06:40 18,4 C 17,2 C 13,3 C 74 % 1020,2 hPa 0,0 l/m 0 min 0 min 0 W/m 3,2 km/h (1 Bft) 97,87 %
05.09.2023 06:42 18,4 C 17,2 C 13,3 C 74 % 1020,2 hPa 0,0 l/m 0 min 0 min 0 W/m 6,4 km/h (2 Bft) 97,87 %
05.09.2023 06:44 18,3 C 17,2 C 13,3 C 74 % 1020,2 hPa 0,0 l/m 0 min 0 min 0 W/m 6,4 km/h (2 Bft) 97,87 %
05.09.2023 06:46 18,3 C 17,2 C 13,9 C 74 % 1020,2 hPa 0,0 l/m 0 min 0 min 0 W/m 6,4 km/h (2 Bft) 95,74 %
05.09.2023 06:48 18,3 C 17,2 C 13,9 C 74 % 1020,2 hPa 0,0 l/m 0 min 0 min 0 W/m 3,2 km/h (1 Bft) 95,74 %
05.09.2023 06:50 18,3 C 17,2 C 13,9 C 75 % 1020,2 hPa 0,0 l/m 0 min 0 min 0 W/m 3,2 km/h (1 Bft) 97,87 %
05.09.2023 06:52 18,3 C 17,2 C 13,9 C 75 % 1020,2 hPa 0,0 l/m 0 min 0 min 0 W/m 0,0 km/h (0 Bft) 97,83 %
05.09.2023 06:54 18,3 C 17,2 C 13,3 C 75 % 1020,3 hPa 0,0 l/m 0 min 0 min 0 W/m 0,0 km/h (0 Bft) 100,00 %
05.09.2023 06:56 18,3 C 17,2 C 13,3 C 75 % 1020,3 hPa 0,0 l/m 0 min 0 min 0 W/m 0,0 km/h (0 Bft) 100,00 %
05.09.2023 06:58 18,2 C 17,2 C 13,3 C 75 % 1020,3 hPa 0,0 l/m 0 min 0 min 0 W/m 0,0 km/h (0 Bft) 98,15 %
05.09.2023 07:00 18,2 C 17,2 C 13,3 C 75 % 1020,4 hPa 0,0 l/m 0 min 0 min 4 W/m 0,0 km/h (0 Bft) 100,00 %
05.09.2023 07:02 18,2 C 17,2 C 13,3 C 75 % 1020,3 hPa 0,0 l/m 0 min 0 min 5 W/m 0,0 km/h (0 Bft) 100,00 %
05.09.2023 07:04 18,2 C 17,2 C 13,3 C 75 % 1020,4 hPa 0,0 l/m 0 min 0 min 5 W/m 0,0 km/h (0 Bft) 100,00 %
05.09.2023 07:06 18,2 C 16,7 C 13,3 C 76 % 1020,5 hPa 0,0 l/m 0 min 0 min 5 W/m 0,0 km/h (0 Bft) 93,62 %
05.09.2023 07:08 18,2 C 16,7 C 13,3 C 76 % 1020,4 hPa 0,0 l/m 0 min 0 min 7 W/m 0,0 km/h (0 Bft) 100,00 %
05.09.2023 07:10 18,2 C 16,7 C 13,3 C 76 % 1020,5 hPa 0,0 l/m 0 min 0 min 7 W/m 0,0 km/h (0 Bft) 100,00 %
05.09.2023 07:12 18,1 C 16,7 C 13,3 C 76 % 1020,5 hPa 0,0 l/m 0 min 0 min 8 W/m 0,0 km/h (0 Bft) 97,87 %
05.09.2023 07:14 18,1 C 16,7 C 13,3 C 76 % 1020,4 hPa 0,0 l/m 0 min 0 min 9 W/m 0,0 km/h (0 Bft) 95,74 %
05.09.2023 07:16 18,1 C 16,7 C 13,3 C 76 % 1020,5 hPa 0,0 l/m 0 min 0 min 9 W/m 3,2 km/h (1 Bft) 95,65 %
05.09.2023 07:18 18,1 C 16,7 C 13,3 C 76 % 1020,5 hPa 0,0 l/m 0 min 0 min 10 W/m 3,2 km/h (1 Bft) 97,87 %
05.09.2023 07:20 18,1 C 16,7 C 13,3 C 76 % 1020,5 hPa 0,0 l/m 0 min 0 min 11 W/m 3,2 km/h (1 Bft) 97,87 %
05.09.2023 07:22 18,0 C 16,7 C 13,3 C 76 % 1020,5 hPa 0,0 l/m 0 min 0 min 11 W/m 3,2 km/h (1 Bft) 95,74 %
05.09.2023 07:24 18,0 C 16,7 C 13,3 C 76 % 1020,6 hPa 0,0 l/m 0 min 0 min 11 W/m 6,4 km/h (2 Bft) 95,74 %
05.09.2023 07:25 18,0 C 16,7 C 13,3 C 76 % 1020,6 hPa 0,0 l/m 0 min 0 min 11 W/m 6,4 km/h (2 Bft) 99,12 %
05.09.2023 07:30 17,9 C 17,2 C 13,3 C 76 % 1020,6 hPa 0,0 l/m 0 min 0 min 12 W/m 6,4 km/h (2 Bft) 96,49 %
05.09.2023 07:32 17,9 C 17,2 C 13,3 C 77 % 1020,6 hPa 0,0 l/m 0 min 0 min 12 W/m 0,0 km/h (0 Bft) 97,58 %
05.09.2023 07:34 17,9 C 17,2 C 13,3 C 77 % 1020,6 hPa 0,0 l/m 0 min 0 min 12 W/m 3,2 km/h (1 Bft) 93,55 %
05.09.2023 07:36 18,0 C 17,2 C 13,3 C 77 % 1020,6 hPa 0,0 l/m 0 min 0 min 14 W/m 3,2 km/h (1 Bft) 44,44 %
05.09.2023 07:38 18,0 C 17,2 C 13,3 C 77 % 1020,6 hPa 0,0 l/m 0 min 0 min 14 W/m 3,2 km/h (1 Bft) 95,35 %
05.09.2023 07:40 18,0 C 17,2 C 13,3 C 77 % 1020,6 hPa 0,0 l/m 0 min 0 min 14 W/m 6,4 km/h (2 Bft) 95,74 %
05.09.2023 07:42 18,0 C 17,2 C 13,3 C 77 % 1020,6 hPa 0,0 l/m 0 min 0 min 14 W/m 6,4 km/h (2 Bft) 93,62 %
05.09.2023 07:44 18,1 C 17,2 C 13,3 C 77 % 1020,6 hPa 0,0 l/m 0 min 0 min 14 W/m 6,4 km/h (2 Bft) 93,62 %
05.09.2023 07:46 18,1 C 17,2 C 13,9 C 77 % 1020,7 hPa 0,0 l/m 0 min 0 min 15 W/m 6,4 km/h (2 Bft) 95,74 %
05.09.2023 07:48 18,1 C 17,2 C 13,9 C 77 % 1020,6 hPa 0,0 l/m 0 min 0 min 16 W/m 3,2 km/h (1 Bft) 95,74 %
05.09.2023 07:50 18,1 C 17,2 C 13,9 C 77 % 1020,6 hPa 0,0 l/m 0 min 0 min 16 W/m 9,7 km/h (2 Bft) 93,62 %
05.09.2023 07:52 18,2 C 17,8 C 13,9 C 77 % 1020,7 hPa 0,0 l/m 0 min 0 min 16 W/m 3,2 km/h (1 Bft) 95,65 %
05.09.2023 07:54 18,2 C 17,8 C 13,9 C 77 % 1020,7 hPa 0,0 l/m 0 min 0 min 16 W/m 3,2 km/h (1 Bft) 95,74 %
05.09.2023 07:56 18,2 C 17,8 C 13,9 C 77 % 1020,7 hPa 0,0 l/m 0 min 0 min 16 W/m 6,4 km/h (2 Bft) 93,62 %
05.09.2023 07:58 18,3 C 17,8 C 13,9 C 77 % 1020,7 hPa 0,0 l/m 0 min 0 min 17 W/m 12,9 km/h (3 Bft) 95,74 %
05.09.2023 08:00 18,3 C 17,8 C 13,9 C 76 % 1020,7 hPa 0,0 l/m 0 min 0 min 18 W/m 12,9 km/h (3 Bft) 95,74 %
05.09.2023 08:02 18,4 C 17,8 C 13,9 C 76 % 1020,7 hPa 0,0 l/m 0 min 0 min 18 W/m 6,4 km/h (2 Bft) 89,36 %
05.09.2023 08:04 18,4 C 17,8 C 13,9 C 76 % 1020,7 hPa 0,0 l/m 0 min 0 min 18 W/m 12,9 km/h (3 Bft) 96,00 %
05.09.2023 08:06 18,5 C 17,8 C 13,9 C 76 % 1020,7 hPa 0,0 l/m 0 min 0 min 18 W/m 6,4 km/h (2 Bft) 98,31 %
05.09.2023 08:08 18,6 C 17,8 C 13,9 C 76 % 1020,7 hPa 0,0 l/m 0 min 0 min 19 W/m 6,4 km/h (2 Bft) 97,14 %
05.09.2023 08:10 18,6 C 17,8 C 13,9 C 76 % 1020,7 hPa 0,0 l/m 0 min 0 min 19 W/m 6,4 km/h (2 Bft) 95,74 %
05.09.2023 08:12 18,6 C 17,8 C 14,4 C 76 % 1020,7 hPa 0,0 l/m 0 min 0 min 19 W/m 6,4 km/h (2 Bft) 95,74 %
05.09.2023 08:14 18,7 C 18,3 C 14,4 C 75 % 1020,7 hPa 0,0 l/m 0 min 0 min 19 W/m 12,9 km/h (3 Bft) 95,74 %
05.09.2023 08:16 18,7 C 18,3 C 14,4 C 75 % 1020,7 hPa 0,0 l/m 0 min 0 min 19 W/m 9,7 km/h (2 Bft) 95,65 %
05.09.2023 08:18 18,8 C 18,3 C 14,4 C 75 % 1020,7 hPa 0,0 l/m 0 min 0 min 20 W/m 6,4 km/h (2 Bft) 97,87 %
05.09.2023 08:20 18,8 C 18,3 C 14,4 C 75 % 1020,7 hPa 0,0 l/m 0 min 0 min 21 W/m 6,4 km/h (2 Bft) 97,87 %
05.09.2023 08:22 18,9 C 18,3 C 14,4 C 75 % 1020,7 hPa 0,0 l/m 0 min 0 min 21 W/m 6,4 km/h (2 Bft) 95,74 %
05.09.2023 08:24 18,9 C 18,9 C 14,4 C 75 % 1020,7 hPa 0,0 l/m 0 min 0 min 21 W/m 6,4 km/h (2 Bft) 97,87 %
05.09.2023 08:26 19,0 C 18,9 C 14,4 C 75 % 1020,7 hPa 0,0 l/m 0 min 0 min 21 W/m 6,4 km/h (2 Bft) 97,87 %
05.09.2023 08:28 19,1 C 18,9 C 14,4 C 75 % 1020,7 hPa 0,0 l/m 0 min 0 min 22 W/m 6,4 km/h (2 Bft) 97,87 %
05.09.2023 08:30 19,1 C 18,9 C 14,4 C 74 % 1020,8 hPa 0,0 l/m 0 min 0 min 23 W/m 6,4 km/h (2 Bft) 97,83 %
05.09.2023 08:32 19,1 C 18,9 C 14,4 C 74 % 1020,7 hPa 0,0 l/m 0 min 0 min 23 W/m 6,4 km/h (2 Bft) 93,62 %
05.09.2023 08:34 19,2 C 18,9 C 14,4 C 74 % 1020,8 hPa 0,0 l/m 0 min 0 min 23 W/m 6,4 km/h (2 Bft) 97,87 %
05.09.2023 08:36 19,2 C 18,9 C 15,0 C 74 % 1020,8 hPa 0,0 l/m 0 min 0 min 23 W/m 6,4 km/h (2 Bft) 97,87 %
05.09.2023 08:38 19,3 C 18,9 C 15,0 C 74 % 1020,7 hPa 0,0 l/m 0 min 0 min 24 W/m 6,4 km/h (2 Bft) 95,74 %
05.09.2023 08:40 19,3 C 18,9 C 15,0 C 74 % 1020,7 hPa 0,0 l/m 0 min 0 min 25 W/m 12,9 km/h (3 Bft) 97,87 %
05.09.2023 08:42 19,4 C 18,9 C 15,0 C 73 % 1020,6 hPa 0,0 l/m 0 min 0 min 25 W/m 9,7 km/h (2 Bft) 97,87 %
05.09.2023 08:44 19,5 C 19,4 C 15,0 C 73 % 1020,7 hPa 0,0 l/m 0 min 0 min 25 W/m 12,9 km/h (3 Bft) 97,83 %
05.09.2023 08:46 19,6 C 19,4 C 15,0 C 73 % 1020,7 hPa 0,0 l/m 0 min 0 min 25 W/m 9,7 km/h (2 Bft) 100,00 %
05.09.2023 08:48 19,6 C 19,4 C 15,0 C 73 % 1020,7 hPa 0,0 l/m 0 min 0 min 26 W/m 12,9 km/h (3 Bft) 100,00 %
05.09.2023 08:50 19,7 C 19,4 C 15,0 C 73 % 1020,7 hPa 0,0 l/m 0 min 0 min 26 W/m 12,9 km/h (3 Bft) 100,00 %
05.09.2023 08:52 19,8 C 19,4 C 15,6 C 72 % 1020,7 hPa 0,0 l/m 0 min 0 min 26 W/m 12,9 km/h (3 Bft) 100,00 %
05.09.2023 08:54 19,9 C 19,4 C 15,6 C 72 % 1020,7 hPa 0,0 l/m 0 min 0 min 26 W/m 9,7 km/h (2 Bft) 100,00 %
05.09.2023 08:56 19,9 C 19,4 C 15,6 C 72 % 1020,7 hPa 0,0 l/m 0 min 0 min 28 W/m 6,4 km/h (2 Bft) 100,00 %
05.09.2023 08:58 20,1 C 20,0 C 15,6 C 71 % 1020,7 hPa 0,0 l/m 0 min 0 min 28 W/m 19,3 km/h (3 Bft) 97,83 %
05.09.2023 09:00 20,1 C 20,0 C 15,6 C 71 % 1020,7 hPa 0,0 l/m 0 min 0 min 59 W/m 6,4 km/h (2 Bft) 100,00 %
05.09.2023 09:02 20,2 C 20,0 C 15,6 C 71 % 1020,7 hPa 0,0 l/m 2 min 0 min 200 W/m 12,9 km/h (3 Bft) 100,00 %
05.09.2023 09:04 20,3 C 20,0 C 15,6 C 71 % 1020,7 hPa 0,0 l/m 2 min 0 min 166 W/m 19,3 km/h (3 Bft) 100,00 %
05.09.2023 09:06 20,4 C 20,0 C 15,6 C 70 % 1020,8 hPa 0,0 l/m 2 min 0 min 200 W/m 12,9 km/h (3 Bft) 100,00 %
05.09.2023 09:08 20,4 C 20,0 C 16,1 C 71 % 1020,8 hPa 0,0 l/m 2 min 0 min 314 W/m 9,7 km/h (2 Bft) 100,00 %
05.09.2023 09:10 20,6 C 20,0 C 16,1 C 70 % 1020,8 hPa 0,0 l/m 2 min 0 min 298 W/m 19,3 km/h (3 Bft) 100,00 %
05.09.2023 09:12 20,6 C 20,0 C 16,1 C 70 % 1020,8 hPa 0,0 l/m 0 min 0 min 172 W/m 22,5 km/h (4 Bft) 97,83 %
05.09.2023 09:14 20,7 C 20,6 C 16,1 C 69 % 1020,8 hPa 0,0 l/m 0 min 0 min 59 W/m 19,3 km/h (3 Bft) 100,00 %
05.09.2023 09:16 20,8 C 20,6 C 16,1 C 69 % 1020,8 hPa 0,0 l/m 0 min 0 min 40 W/m 16,1 km/h (3 Bft) 100,00 %
05.09.2023 09:18 20,9 C 20,6 C 16,1 C 69 % 1020,8 hPa 0,0 l/m 0 min 0 min 63 W/m 16,1 km/h (3 Bft) 100,00 %
05.09.2023 09:20 21,0 C 20,6 C 16,1 C 69 % 1020,7 hPa 0,0 l/m 0 min 0 min 59 W/m 16,1 km/h (3 Bft) 100,00 %
05.09.2023 09:22 21,1 C 20,6 C 16,1 C 69 % 1020,8 hPa 0,0 l/m 0 min 0 min 55 W/m 16,1 km/h (3 Bft) 100,00 %
05.09.2023 09:24 21,1 C 20,6 C 16,1 C 69 % 1020,8 hPa 0,0 l/m 0 min 0 min 108 W/m 12,9 km/h (3 Bft) 100,00 %
05.09.2023 09:26 21,2 C 20,6 C 16,7 C 68 % 1020,7 hPa 0,0 l/m 0 min 0 min 67 W/m 12,9 km/h (3 Bft) 97,87 %
05.09.2023 09:28 21,3 C 20,6 C 16,7 C 68 % 1020,8 hPa 0,0 l/m 0 min 0 min 41 W/m 12,9 km/h (3 Bft) 100,00 %
05.09.2023 09:30 21,3 C 20,6 C 16,7 C 68 % 1020,7 hPa 0,0 l/m 0 min 0 min 58 W/m 12,9 km/h (3 Bft) 100,00 %
05.09.2023 09:32 21,4 C 21,1 C 16,7 C 68 % 1020,7 hPa 0,0 l/m 0 min 0 min 42 W/m 12,9 km/h (3 Bft) 100,00 %
05.09.2023 09:34 21,4 C 21,1 C 16,7 C 68 % 1020,8 hPa 0,0 l/m 0 min 0 min 39 W/m 16,1 km/h (3 Bft) 100,00 %
05.09.2023 09:36 21,5 C 21,1 C 16,7 C 67 % 1020,7 hPa 0,0 l/m 0 min 0 min 34 W/m 12,9 km/h (3 Bft) 97,87 %
05.09.2023 09:38 21,6 C 21,1 C 16,7 C 67 % 1020,7 hPa 0,0 l/m 0 min 0 min 36 W/m 12,9 km/h (3 Bft) 100,00 %
05.09.2023 09:40 21,6 C 21,1 C 16,7 C 67 % 1020,7 hPa 0,0 l/m 0 min 0 min 37 W/m 16,1 km/h (3 Bft) 100,00 %
05.09.2023 09:42 21,7 C 21,1 C 16,7 C 67 % 1020,6 hPa 0,0 l/m 0 min 0 min 35 W/m 16,1 km/h (3 Bft) 97,92 %
05.09.2023 09:44 21,7 C 21,1 C 16,7 C 66 % 1020,6 hPa 0,0 l/m 0 min 0 min 34 W/m 22,5 km/h (4 Bft) 97,87 %
05.09.2023 09:46 21,8 C 21,1 C 16,7 C 66 % 1020,6 hPa 0,0 l/m 0 min 0 min 38 W/m 19,3 km/h (3 Bft) 100,00 %
05.09.2023 09:48 21,9 C 21,1 C 17,2 C 66 % 1020,6 hPa 0,0 l/m 0 min 0 min 44 W/m 19,3 km/h (3 Bft) 97,87 %
05.09.2023 09:50 21,9 C 21,1 C 17,2 C 66 % 1020,6 hPa 0,0 l/m 0 min 0 min 36 W/m 16,1 km/h (3 Bft) 100,00 %
05.09.2023 09:52 21,9 C 21,1 C 17,2 C 66 % 1020,6 hPa 0,0 l/m 0 min 0 min 41 W/m 19,3 km/h (3 Bft) 97,87 %
05.09.2023 09:54 22,0 C 21,1 C 17,2 C 66 % 1020,6 hPa 0,0 l/m 0 min 0 min 47 W/m 22,5 km/h (4 Bft) 100,00 %
05.09.2023 09:56 22,1 C 21,7 C 17,2 C 66 % 1020,6 hPa 0,0 l/m 0 min 0 min 98 W/m 16,1 km/h (3 Bft) 97,87 %
05.09.2023 09:58 22,1 C 21,7 C 17,2 C 66 % 1020,6 hPa 0,0 l/m 2 min 0 min 239 W/m 16,1 km/h (3 Bft) 100,00 %
05.09.2023 10:00 22,2 C 21,7 C 17,2 C 66 % 1020,6 hPa 0,0 l/m 2 min 0 min 330 W/m 12,9 km/h (3 Bft) 100,00 %
05.09.2023 10:02 22,2 C 21,7 C 17,2 C 66 % 1020,7 hPa 0,0 l/m 2 min 0 min 360 W/m 16,1 km/h (3 Bft) 97,83 %
05.09.2023 10:04 22,3 C 22,2 C 17,2 C 66 % 1020,7 hPa 0,0 l/m 0 min 0 min 130 W/m 35,4 km/h (5 Bft) 97,67 %
05.09.2023 10:06 22,4 C 22,2 C 17,2 C 65 % 1020,7 hPa 0,0 l/m 0 min 0 min 125 W/m 12,9 km/h (3 Bft) 100,00 %
05.09.2023 10:08 22,4 C 22,2 C 17,2 C 65 % 1020,6 hPa 0,0 l/m 0 min 0 min 149 W/m 25,7 km/h (4 Bft) 97,14 %
05.09.2023 10:10 22,4 C 22,2 C 17,8 C 65 % 1020,7 hPa 0,0 l/m 0 min 0 min 182 W/m 25,7 km/h (4 Bft) 97,87 %
05.09.2023 10:12 22,6 C 22,2 C 17,8 C 64 % 1020,7 hPa 0,0 l/m 0 min 0 min 213 W/m 19,3 km/h (3 Bft) 93,48 %
05.09.2023 10:14 22,6 C 22,2 C 17,8 C 65 % 1020,7 hPa 0,0 l/m 0 min 0 min 153 W/m 9,7 km/h (2 Bft) 91,49 %
05.09.2023 10:16 22,7 C 22,2 C 17,8 C 65 % 1020,7 hPa 0,0 l/m 0 min 0 min 41 W/m 16,1 km/h (3 Bft) 93,62 %
05.09.2023 10:18 22,7 C 22,2 C 17,8 C 65 % 1020,7 hPa 0,0 l/m 0 min 0 min 39 W/m 22,5 km/h (4 Bft) 93,62 %
05.09.2023 10:20 22,8 C 22,8 C 17,8 C 64 % 1020,7 hPa 0,0 l/m 0 min 0 min 41 W/m 22,5 km/h (4 Bft) 93,62 %
05.09.2023 10:22 22,8 C 23,3 C 18,3 C 64 % 1020,7 hPa 0,0 l/m 0 min 0 min 62 W/m 16,1 km/h (3 Bft) 89,36 %
05.09.2023 10:24 22,9 C 23,3 C 18,3 C 64 % 1020,7 hPa 0,0 l/m 0 min 0 min 67 W/m 16,1 km/h (3 Bft) 93,62 %
05.09.2023 10:26 22,9 C 23,9 C 18,3 C 65 % 1020,7 hPa 0,0 l/m 0 min 0 min 167 W/m 12,9 km/h (3 Bft) 93,62 %
05.09.2023 10:28 23,1 C 23,9 C 18,3 C 64 % 1020,7 hPa 0,0 l/m 0 min 0 min 220 W/m 22,5 km/h (4 Bft) 93,48 %
05.09.2023 10:30 23,1 C 23,3 C 18,3 C 64 % 1020,7 hPa 0,0 l/m 0 min 0 min 215 W/m 22,5 km/h (4 Bft) 93,62 %
05.09.2023 10:32 23,1 C 23,3 C 18,3 C 64 % 1020,7 hPa 0,0 l/m 0 min 0 min 127 W/m 25,7 km/h (4 Bft) 93,62 %
05.09.2023 10:34 23,2 C 23,3 C 18,3 C 63 % 1020,7 hPa 0,0 l/m 0 min 0 min 46 W/m 12,9 km/h (3 Bft) 93,62 %
05.09.2023 10:36 23,2 C 23,3 C 18,3 C 64 % 1020,6 hPa 0,0 l/m 0 min 0 min 49 W/m 22,5 km/h (4 Bft) 95,74 %
05.09.2023 10:38 23,3 C 23,9 C 18,3 C 64 % 1020,6 hPa 0,0 l/m 0 min 0 min 92 W/m 16,1 km/h (3 Bft) 93,62 %
05.09.2023 10:40 23,3 C 23,9 C 18,3 C 64 % 1020,5 hPa 0,0 l/m 0 min 0 min 58 W/m 25,7 km/h (4 Bft) 91,49 %
05.09.2023 10:42 23,4 C 23,9 C 18,3 C 63 % 1020,5 hPa 0,0 l/m 0 min 0 min 49 W/m 16,1 km/h (3 Bft) 93,48 %
05.09.2023 10:44 23,4 C 23,9 C 18,3 C 63 % 1020,5 hPa 0,0 l/m 0 min 0 min 74 W/m 16,1 km/h (3 Bft) 93,62 %
05.09.2023 10:46 23,4 C 23,3 C 18,3 C 63 % 1020,4 hPa 0,0 l/m 0 min 0 min 40 W/m 22,5 km/h (4 Bft) 91,49 %
05.09.2023 10:48 23,5 C 23,3 C 18,3 C 63 % 1020,4 hPa 0,0 l/m 0 min 0 min 64 W/m 22,5 km/h (4 Bft) 95,74 %
05.09.2023 10:50 23,6 C 23,3 C 18,3 C 63 % 1020,4 hPa 0,0 l/m 0 min 0 min 64 W/m 22,5 km/h (4 Bft) 95,74 %
05.09.2023 10:52 23,6 C 23,9 C 18,3 C 63 % 1020,4 hPa 0,0 l/m 0 min 0 min 43 W/m 16,1 km/h (3 Bft) 95,74 %
05.09.2023 10:54 23,7 C 24,4 C 18,3 C 63 % 1020,4 hPa 0,0 l/m 0 min 0 min 39 W/m 16,1 km/h (3 Bft) 97,87 %
05.09.2023 10:56 23,7 C 26,1 C 18,9 C 63 % 1020,4 hPa 0,0 l/m 0 min 0 min 42 W/m 12,9 km/h (3 Bft) 95,65 %
05.09.2023 10:58 23,8 C 26,7 C 18,9 C 63 % 1020,4 hPa 0,0 l/m 0 min 0 min 56 W/m 16,1 km/h (3 Bft) 95,74 %
05.09.2023 11:00 23,8 C 26,1 C 18,9 C 63 % 1020,4 hPa 0,0 l/m 0 min 0 min 53 W/m 32,2 km/h (5 Bft) 98,18 %
05.09.2023 11:02 23,9 C 25,6 C 18,9 C 62 % 1020,4 hPa 0,0 l/m 0 min 0 min 132 W/m 19,3 km/h (3 Bft) 97,87 %
05.09.2023 11:04 23,9 C 25,0 C 18,9 C 62 % 1020,4 hPa 0,0 l/m 2 min 0 min 547 W/m 16,1 km/h (3 Bft) 95,65 %
05.09.2023 11:06 24,0 C 24,4 C 18,9 C 62 % 1020,4 hPa 0,0 l/m 2 min 0 min 494 W/m 16,1 km/h (3 Bft) 98,28 %
05.09.2023 11:08 24,1 C 25,0 C 18,9 C 62 % 1020,4 hPa 0,0 l/m 2 min 0 min 485 W/m 16,1 km/h (3 Bft) 100,00 %
05.09.2023 11:10 24,1 C 26,1 C 18,9 C 62 % 1020,4 hPa 0,0 l/m 2 min 0 min 379 W/m 22,5 km/h (4 Bft) 97,83 %
05.09.2023 11:12 24,2 C 27,2 C 18,9 C 62 % 1020,4 hPa 0,0 l/m 2 min 0 min 406 W/m 12,9 km/h (3 Bft) 100,00 %
05.09.2023 11:14 24,3 C 26,7 C 19,4 C 62 % 1020,4 hPa 0,0 l/m 2 min 0 min 571 W/m 16,1 km/h (3 Bft) 100,00 %
05.09.2023 11:16 24,3 C 26,7 C 19,4 C 62 % 1020,4 hPa 0,0 l/m 2 min 0 min 424 W/m 12,9 km/h (3 Bft) 97,87 %
05.09.2023 11:18 24,4 C 26,1 C 19,4 C 62 % 1020,4 hPa 0,0 l/m 2 min 0 min 510 W/m 12,9 km/h (3 Bft) 100,00 %
05.09.2023 11:20 24,5 C 25,6 C 19,4 C 61 % 1020,4 hPa 0,0 l/m 2 min 0 min 621 W/m 16,1 km/h (3 Bft) 97,87 %
05.09.2023 11:22 24,6 C 25,6 C 19,4 C 62 % 1020,4 hPa 0,0 l/m 2 min 0 min 621 W/m 19,3 km/h (3 Bft) 100,00 %
05.09.2023 11:24 24,6 C 25,6 C 19,4 C 62 % 1020,4 hPa 0,0 l/m 2 min 0 min 621 W/m 19,3 km/h (3 Bft) 100,00 %
05.09.2023 11:26 24,7 C 25,6 C 19,4 C 62 % 1020,3 hPa 0,0 l/m 2 min 0 min 621 W/m 19,3 km/h (3 Bft) 100,00 %
05.09.2023 11:28 24,7 C 25,6 C 20,0 C 62 % 1020,4 hPa 0,0 l/m 2 min 0 min 621 W/m 16,1 km/h (3 Bft) 100,00 %
05.09.2023 11:30 24,8 C 25,6 C 20,0 C 61 % 1020,4 hPa 0,0 l/m 2 min 0 min 375 W/m 16,1 km/h (3 Bft) 100,00 %
05.09.2023 11:32 24,9 C 26,1 C 20,0 C 61 % 1020,3 hPa 0,0 l/m 2 min 0 min 346 W/m 19,3 km/h (3 Bft) 100,00 %
05.09.2023 11:34 25,0 C 26,1 C 20,0 C 61 % 1020,4 hPa 0,0 l/m 2 min 0 min 346 W/m 19,3 km/h (3 Bft) 100,00 %
05.09.2023 11:36 25,1 C 26,1 C 20,0 C 60 % 1020,3 hPa 0,0 l/m 0 min 0 min 226 W/m 16,1 km/h (3 Bft) 93,48 %
05.09.2023 11:38 25,1 C 26,1 C 20,6 C 61 % 1020,3 hPa 0,0 l/m 0 min 0 min 118 W/m 16,1 km/h (3 Bft) 100,00 %
05.09.2023 11:40 25,2 C 26,1 C 20,6 C 60 % 1020,3 hPa 0,0 l/m 0 min 0 min 210 W/m 19,3 km/h (3 Bft) 100,00 %
05.09.2023 11:42 25,2 C 27,2 C 20,6 C 60 % 1020,3 hPa 0,0 l/m 2 min 0 min 449 W/m 22,5 km/h (4 Bft) 97,87 %
05.09.2023 11:44 25,3 C 27,8 C 20,6 C 61 % 1020,2 hPa 0,0 l/m 2 min 0 min 355 W/m 22,5 km/h (4 Bft) 100,00 %
05.09.2023 11:46 25,4 C 27,2 C 21,1 C 61 % 1020,2 hPa 0,0 l/m 2 min 0 min 330 W/m 16,1 km/h (3 Bft) 97,87 %
05.09.2023 11:48 25,4 C 27,8 C 21,1 C 61 % 1020,2 hPa 0,0 l/m 2 min 0 min 383 W/m 19,3 km/h (3 Bft) 100,00 %
05.09.2023 11:50 25,6 C 27,8 C 21,1 C 60 % 1020,1 hPa 0,0 l/m 2 min 0 min 379 W/m 16,1 km/h (3 Bft) 100,00 %
05.09.2023 11:52 25,6 C 27,8 C 21,7 C 60 % 1020,2 hPa 0,0 l/m 2 min 0 min 487 W/m 19,3 km/h (3 Bft) 100,00 %
05.09.2023 11:54 25,7 C 27,8 C 21,7 C 60 % 1020,2 hPa 0,0 l/m 2 min 0 min 708 W/m 32,2 km/h (5 Bft) 100,00 %
05.09.2023 11:56 25,8 C 27,8 C 22,2 C 59 % 1020,2 hPa 0,0 l/m 2 min 0 min 707 W/m 12,9 km/h (3 Bft) 100,00 %
05.09.2023 12:00 25,9 C 28,9 C 22,8 C 60 % 1020,2 hPa 0,0 l/m 4 min 0 min 717 W/m 12,9 km/h (3 Bft) 100,00 %
05.09.2023 12:02 26,1 C 30,0 C 23,3 C 60 % 1020,3 hPa 0,0 l/m 2 min 0 min 721 W/m 9,7 km/h (2 Bft) 100,00 %
05.09.2023 12:04 26,2 C 30,6 C 23,3 C 59 % 1020,2 hPa 0,0 l/m 2 min 0 min 724 W/m 12,9 km/h (3 Bft) 100,00 %
05.09.2023 12:08 26,3 C 30,6 C 23,3 C 58 % 1020,2 hPa 0,0 l/m 4 min 0 min 729 W/m 16,1 km/h (3 Bft) 99,03 %
05.09.2023 12:10 26,4 C 31,1 C 23,3 C 57 % 1020,2 hPa 0,0 l/m 2 min 0 min 732 W/m 19,3 km/h (3 Bft) 100,00 %
05.09.2023 12:12 26,5 C 32,2 C 23,9 C 57 % 1020,2 hPa 0,0 l/m 2 min 0 min 733 W/m 19,3 km/h (3 Bft) 97,87 %
05.09.2023 12:14 26,6 C 32,2 C 23,3 C 57 % 1020,2 hPa 0,0 l/m 2 min 0 min 736 W/m 19,3 km/h (3 Bft) 97,87 %
05.09.2023 12:16 26,6 C 32,2 C 22,8 C 57 % 1020,3 hPa 0,0 l/m 2 min 0 min 739 W/m 16,1 km/h (3 Bft) 95,74 %
05.09.2023 12:18 26,7 C 31,1 C 22,8 C 56 % 1020,3 hPa 0,0 l/m 2 min 0 min 742 W/m 16,1 km/h (3 Bft) 97,87 %
05.09.2023 12:20 26,7 C 30,6 C 22,2 C 56 % 1020,2 hPa 0,0 l/m 2 min 0 min 744 W/m 16,1 km/h (3 Bft) 97,87 %
05.09.2023 12:22 26,8 C 30,0 C 22,2 C 56 % 1020,1 hPa 0,0 l/m 2 min 0 min 745 W/m 16,1 km/h (3 Bft) 97,87 %
05.09.2023 12:24 26,8 C 30,0 C 22,2 C 57 % 1020,1 hPa 0,0 l/m 2 min 0 min 634 W/m 19,3 km/h (3 Bft) 97,83 %
05.09.2023 12:26 26,9 C 29,4 C 22,2 C 57 % 1020,2 hPa 0,0 l/m 2 min 0 min 613 W/m 16,1 km/h (3 Bft) 97,87 %
05.09.2023 12:28 26,9 C 28,9 C 21,7 C 55 % 1020,1 hPa 0,0 l/m 2 min 0 min 725 W/m 25,7 km/h (4 Bft) 97,87 %
05.09.2023 12:30 26,9 C 28,3 C 21,7 C 55 % 1020,0 hPa 0,0 l/m 2 min 0 min 747 W/m 19,3 km/h (3 Bft) 97,87 %
05.09.2023 12:32 26,9 C 27,8 C 21,7 C 55 % 1020,0 hPa 0,0 l/m 2 min 0 min 476 W/m 16,1 km/h (3 Bft) 97,87 %
05.09.2023 12:34 26,9 C 27,2 C 21,7 C 56 % 1020,0 hPa 0,0 l/m 2 min 0 min 408 W/m 16,1 km/h (3 Bft) 97,87 %
05.09.2023 12:36 26,9 C 27,2 C 21,7 C 56 % 1020,0 hPa 0,0 l/m 2 min 0 min 538 W/m 22,5 km/h (4 Bft) 97,87 %
05.09.2023 12:38 26,9 C 27,2 C 21,7 C 56 % 1020,0 hPa 0,0 l/m 2 min 0 min 624 W/m 16,1 km/h (3 Bft) 97,83 %
05.09.2023 12:40 26,9 C 26,7 C 21,7 C 56 % 1020,1 hPa 0,0 l/m 2 min 0 min 380 W/m 16,1 km/h (3 Bft) 97,87 %
05.09.2023 12:42 27,0 C 26,7 C 21,7 C 55 % 1020,1 hPa 0,0 l/m 0 min 0 min 118 W/m 19,3 km/h (3 Bft) 95,74 %
05.09.2023 12:44 27,0 C 26,1 C 21,7 C 56 % 1020,1 hPa 0,0 l/m 0 min 0 min 70 W/m 16,1 km/h (3 Bft) 93,62 %
05.09.2023 12:46 27,1 C 26,7 C 21,7 C 56 % 1020,2 hPa 0,0 l/m 0 min 0 min 197 W/m 19,3 km/h (3 Bft) 97,87 %
05.09.2023 12:48 27,1 C 26,1 C 21,7 C 56 % 1020,1 hPa 0,0 l/m 2 min 0 min 357 W/m 16,1 km/h (3 Bft) 97,87 %
05.09.2023 12:50 27,1 C 26,1 C 21,7 C 56 % 1020,1 hPa 0,0 l/m 0 min 0 min 298 W/m 19,3 km/h (3 Bft) 97,87 %
05.09.2023 12:52 27,1 C 26,1 C 21,7 C 56 % 1020,1 hPa 0,0 l/m 0 min 0 min 116 W/m 16,1 km/h (3 Bft) 95,65 %
05.09.2023 12:54 27,1 C 26,1 C 21,7 C 56 % 1020,0 hPa 0,0 l/m 0 min 0 min 48 W/m 16,1 km/h (3 Bft) 95,74 %
05.09.2023 12:56 27,1 C 26,1 C 21,7 C 57 % 1020,0 hPa 0,0 l/m 0 min 0 min 76 W/m 19,3 km/h (3 Bft) 97,87 %
05.09.2023 12:58 27,2 C 26,1 C 21,7 C 56 % 1020,0 hPa 0,0 l/m 0 min 0 min 55 W/m 12,9 km/h (3 Bft) 97,87 %
05.09.2023 13:00 27,2 C 26,7 C 21,7 C 57 % 1020,1 hPa 0,0 l/m 0 min 0 min 50 W/m 16,1 km/h (3 Bft) 97,87 %
05.09.2023 13:02 27,2 C 26,7 C 21,7 C 57 % 1020,0 hPa 0,0 l/m 0 min 0 min 48 W/m 16,1 km/h (3 Bft) 97,87 %
05.09.2023 13:04 27,3 C 26,7 C 21,7 C 57 % 1020,0 hPa 0,0 l/m 0 min 0 min 47 W/m 12,9 km/h (3 Bft) 97,62 %
05.09.2023 13:06 27,3 C 26,7 C 21,7 C 57 % 1019,9 hPa 0,0 l/m 0 min 0 min 46 W/m 19,3 km/h (3 Bft) 96,15 %
05.09.2023 13:08 27,3 C 26,7 C 21,7 C 57 % 1019,9 hPa 0,0 l/m 0 min 0 min 46 W/m 12,9 km/h (3 Bft) 97,44 %
05.09.2023 13:10 27,3 C 26,7 C 21,7 C 56 % 1019,9 hPa 0,0 l/m 0 min 0 min 46 W/m 19,3 km/h (3 Bft) 97,83 %
05.09.2023 13:12 27,3 C 26,7 C 21,7 C 56 % 1019,9 hPa 0,0 l/m 0 min 0 min 44 W/m 12,9 km/h (3 Bft) 97,87 %
05.09.2023 13:14 27,4 C 26,7 C 21,7 C 57 % 1019,9 hPa 0,0 l/m 0 min 0 min 45 W/m 9,7 km/h (2 Bft) 95,74 %
05.09.2023 13:16 27,4 C 26,7 C 21,7 C 56 % 1019,9 hPa 0,0 l/m 0 min 0 min 46 W/m 16,1 km/h (3 Bft) 95,74 %
05.09.2023 13:18 27,4 C 26,1 C 21,7 C 56 % 1019,8 hPa 0,0 l/m 0 min 0 min 46 W/m 19,3 km/h (3 Bft) 97,87 %
05.09.2023 13:20 27,4 C 26,7 C 21,7 C 56 % 1019,8 hPa 0,0 l/m 0 min 0 min 46 W/m 9,7 km/h (2 Bft) 97,87 %
05.09.2023 13:22 27,4 C 26,7 C 22,2 C 56 % 1019,8 hPa 0,0 l/m 0 min 0 min 49 W/m 16,1 km/h (3 Bft) 95,74 %
05.09.2023 13:24 27,4 C 26,7 C 22,2 C 58 % 1019,8 hPa 0,0 l/m 0 min 0 min 63 W/m 16,1 km/h (3 Bft) 100,00 %
05.09.2023 13:26 27,5 C 26,7 C 22,2 C 57 % 1019,8 hPa 0,0 l/m 0 min 0 min 72 W/m 19,3 km/h (3 Bft) 97,87 %
05.09.2023 13:28 27,6 C 26,7 C 22,2 C 57 % 1019,7 hPa 0,0 l/m 0 min 0 min 77 W/m 16,1 km/h (3 Bft) 95,74 %
05.09.2023 13:30 27,6 C 26,7 C 22,2 C 56 % 1019,7 hPa 0,0 l/m 0 min 0 min 92 W/m 16,1 km/h (3 Bft) 97,87 %
05.09.2023 13:32 27,6 C 27,2 C 22,2 C 56 % 1019,8 hPa 0,0 l/m 0 min 0 min 103 W/m 19,3 km/h (3 Bft) 97,87 %
05.09.2023 13:34 27,7 C 26,7 C 22,2 C 56 % 1019,8 hPa 0,0 l/m 0 min 0 min 159 W/m 16,1 km/h (3 Bft) 97,87 %
05.09.2023 13:36 27,7 C 27,2 C 22,2 C 56 % 1019,8 hPa 0,0 l/m 0 min 0 min 172 W/m 9,7 km/h (2 Bft) 95,74 %
05.09.2023 13:38 27,7 C 26,7 C 22,2 C 56 % 1019,8 hPa 0,0 l/m 2 min 0 min 405 W/m 19,3 km/h (3 Bft) 97,83 %
05.09.2023 13:40 27,7 C 26,7 C 22,2 C 55 % 1019,8 hPa 0,0 l/m 2 min 0 min 726 W/m 19,3 km/h (3 Bft) 95,74 %
05.09.2023 13:42 27,7 C 26,7 C 22,2 C 54 % 1019,8 hPa 0,0 l/m 2 min 0 min 549 W/m 16,1 km/h (3 Bft) 97,87 %
05.09.2023 13:44 27,7 C 26,7 C 22,2 C 55 % 1019,7 hPa 0,0 l/m 0 min 0 min 91 W/m 19,3 km/h (3 Bft) 97,87 %
05.09.2023 13:46 27,8 C 27,2 C 22,2 C 55 % 1019,8 hPa 0,0 l/m 0 min 0 min 211 W/m 12,9 km/h (3 Bft) 97,87 %
05.09.2023 13:48 27,8 C 27,2 C 22,2 C 55 % 1019,7 hPa 0,0 l/m 2 min 0 min 776 W/m 12,9 km/h (3 Bft) 97,87 %
05.09.2023 13:50 27,9 C 27,2 C 22,2 C 55 % 1019,6 hPa 0,0 l/m 2 min 0 min 777 W/m 16,1 km/h (3 Bft) 97,87 %
05.09.2023 13:52 27,9 C 27,8 C 22,2 C 55 % 1019,7 hPa 0,0 l/m 2 min 0 min 773 W/m 16,1 km/h (3 Bft) 97,83 %
05.09.2023 13:54 28,1 C 28,3 C 22,2 C 54 % 1019,6 hPa 0,0 l/m 2 min 0 min 769 W/m 9,7 km/h (2 Bft) 97,87 %
05.09.2023 13:56 28,1 C 28,3 C 22,2 C 55 % 1019,6 hPa 0,0 l/m 2 min 0 min 764 W/m 16,1 km/h (3 Bft) 95,74 %
05.09.2023 13:58 28,2 C 28,9 C 22,2 C 55 % 1019,6 hPa 0,0 l/m 2 min 0 min 758 W/m 16,1 km/h (3 Bft) 95,74 %
05.09.2023 14:00 28,3 C 29,4 C 22,8 C 55 % 1019,6 hPa 0,0 l/m 2 min 0 min 757 W/m 6,4 km/h (2 Bft) 97,87 %
05.09.2023 14:02 28,4 C 30,0 C 22,8 C 54 % 1019,7 hPa 0,0 l/m 2 min 0 min 767 W/m 16,1 km/h (3 Bft) 97,87 %
05.09.2023 14:04 28,5 C 31,1 C 22,8 C 53 % 1019,6 hPa 0,0 l/m 2 min 0 min 776 W/m 19,3 km/h (3 Bft) 97,87 %
05.09.2023 14:06 28,6 C 32,8 C 22,8 C 54 % 1019,6 hPa 0,0 l/m 2 min 0 min 780 W/m 22,5 km/h (4 Bft) 96,61 %
05.09.2023 14:08 28,7 C 33,9 C 22,8 C 54 % 1019,6 hPa 0,0 l/m 2 min 0 min 780 W/m 19,3 km/h (3 Bft) 91,67 %
05.09.2023 14:10 28,8 C 35,0 C 22,8 C 54 % 1019,6 hPa 0,0 l/m 2 min 0 min 779 W/m 6,4 km/h (2 Bft) 97,83 %
05.09.2023 14:12 28,9 C 35,6 C 22,8 C 54 % 1019,6 hPa 0,0 l/m 2 min 0 min 778 W/m 16,1 km/h (3 Bft) 95,74 %
05.09.2023 14:14 28,9 C 35,0 C 22,8 C 53 % 1019,6 hPa 0,0 l/m 2 min 0 min 776 W/m 22,5 km/h (4 Bft) 95,74 %
05.09.2023 14:16 29,0 C 34,4 C 22,8 C 53 % 1019,5 hPa 0,0 l/m 2 min 0 min 775 W/m 16,1 km/h (3 Bft) 95,74 %
05.09.2023 14:18 29,1 C 34,4 C 22,8 C 53 % 1019,6 hPa 0,0 l/m 2 min 0 min 773 W/m 16,1 km/h (3 Bft) 93,62 %
05.09.2023 14:20 29,1 C 34,4 C 22,8 C 53 % 1019,5 hPa 0,0 l/m 2 min 0 min 772 W/m 16,1 km/h (3 Bft) 95,65 %
05.09.2023 14:22 29,2 C 33,9 C 22,8 C 52 % 1019,5 hPa 0,0 l/m 2 min 0 min 770 W/m 19,3 km/h (3 Bft) 95,74 %
05.09.2023 14:24 29,2 C 33,9 C 22,8 C 52 % 1019,4 hPa 0,0 l/m 2 min 0 min 770 W/m 22,5 km/h (4 Bft) 95,74 %
05.09.2023 14:26 29,2 C 33,3 C 22,8 C 52 % 1019,4 hPa 0,0 l/m 2 min 0 min 768 W/m 19,3 km/h (3 Bft) 95,74 %
05.09.2023 14:28 29,2 C 32,8 C 22,8 C 52 % 1019,4 hPa 0,0 l/m 2 min 0 min 767 W/m 25,7 km/h (4 Bft) 97,87 %
05.09.2023 14:30 29,2 C 31,7 C 22,8 C 52 % 1019,4 hPa 0,0 l/m 2 min 0 min 763 W/m 19,3 km/h (3 Bft) 97,87 %
05.09.2023 14:32 29,3 C 31,1 C 22,8 C 52 % 1019,5 hPa 0,0 l/m 2 min 0 min 762 W/m 22,5 km/h (4 Bft) 97,83 %
05.09.2023 14:34 29,3 C 30,6 C 22,8 C 52 % 1019,5 hPa 0,0 l/m 2 min 0 min 760 W/m 16,1 km/h (3 Bft) 97,87 %
05.09.2023 14:36 29,3 C 30,0 C 22,8 C 52 % 1019,4 hPa 0,0 l/m 2 min 0 min 759 W/m 12,9 km/h (3 Bft) 100,00 %
05.09.2023 14:38 29,4 C 30,0 C 22,8 C 53 % 1019,4 hPa 0,0 l/m 2 min 0 min 756 W/m 12,9 km/h (3 Bft) 95,74 %
05.09.2023 14:40 29,4 C 30,0 C 22,8 C 53 % 1019,4 hPa 0,0 l/m 2 min 0 min 756 W/m 12,9 km/h (3 Bft) 97,87 %
05.09.2023 14:42 29,5 C 30,0 C 22,8 C 53 % 1019,4 hPa 0,0 l/m 2 min 0 min 754 W/m 12,9 km/h (3 Bft) 100,00 %
05.09.2023 14:44 29,6 C 30,0 C 23,3 C 52 % 1019,4 hPa 0,0 l/m 2 min 0 min 752 W/m 16,1 km/h (3 Bft) 100,00 %
05.09.2023 14:46 29,6 C 30,0 C 23,3 C 52 % 1019,3 hPa 0,0 l/m 2 min 0 min 751 W/m 16,1 km/h (3 Bft) 100,00 %
05.09.2023 14:48 29,7 C 30,0 C 23,3 C 52 % 1019,4 hPa 0,0 l/m 2 min 0 min 750 W/m 12,9 km/h (3 Bft) 97,83 %
05.09.2023 14:50 29,7 C 30,0 C 23,3 C 53 % 1019,4 hPa 0,0 l/m 2 min 0 min 745 W/m 12,9 km/h (3 Bft) 100,00 %
05.09.2023 14:52 29,7 C 30,0 C 22,8 C 53 % 1019,4 hPa 0,0 l/m 2 min 0 min 744 W/m 6,4 km/h (2 Bft) 100,00 %
05.09.2023 14:54 29,8 C 30,0 C 23,3 C 52 % 1019,4 hPa 0,0 l/m 2 min 0 min 742 W/m 16,1 km/h (3 Bft) 100,00 %
05.09.2023 14:56 29,8 C 29,4 C 23,3 C 52 % 1019,4 hPa 0,0 l/m 2 min 0 min 739 W/m 16,1 km/h (3 Bft) 95,74 %
05.09.2023 14:58 29,8 C 29,4 C 23,3 C 52 % 1019,4 hPa 0,0 l/m 2 min 0 min 737 W/m 12,9 km/h (3 Bft) 100,00 %
05.09.2023 15:00 29,9 C 29,4 C 23,3 C 52 % 1019,3 hPa 0,0 l/m 2 min 0 min 735 W/m 16,1 km/h (3 Bft) 97,83 %
05.09.2023 15:02 29,9 C 29,4 C 23,3 C 52 % 1019,4 hPa 0,0 l/m 2 min 0 min 733 W/m 22,5 km/h (4 Bft) 100,00 %
05.09.2023 15:04 29,9 C 30,0 C 23,3 C 52 % 1019,3 hPa 0,0 l/m 2 min 0 min 731 W/m 16,1 km/h (3 Bft) 100,00 %
05.09.2023 15:06 29,9 C 29,4 C 23,3 C 52 % 1019,3 hPa 0,0 l/m 2 min 0 min 728 W/m 19,3 km/h (3 Bft) 98,48 %
05.09.2023 15:08 29,9 C 29,4 C 23,3 C 52 % 1019,2 hPa 0,0 l/m 2 min 0 min 725 W/m 9,7 km/h (2 Bft) 100,00 %
05.09.2023 15:10 29,9 C 29,4 C 23,3 C 53 % 1019,2 hPa 0,0 l/m 2 min 0 min 722 W/m 12,9 km/h (3 Bft) 100,00 %
05.09.2023 15:12 30,0 C 28,9 C 23,3 C 53 % 1019,2 hPa 0,0 l/m 2 min 0 min 720 W/m 12,9 km/h (3 Bft) 100,00 %
05.09.2023 15:14 30,1 C 28,9 C 23,3 C 52 % 1019,2 hPa 0,0 l/m 2 min 0 min 717 W/m 9,7 km/h (2 Bft) 100,00 %
05.09.2023 15:16 30,1 C 28,9 C 23,3 C 53 % 1019,2 hPa 0,0 l/m 2 min 0 min 715 W/m 12,9 km/h (3 Bft) 97,87 %
05.09.2023 15:18 30,1 C 28,9 C 23,3 C 53 % 1019,1 hPa 0,0 l/m 2 min 0 min 712 W/m 9,7 km/h (2 Bft) 100,00 %
05.09.2023 15:20 30,1 C 28,9 C 23,3 C 52 % 1019,1 hPa 0,0 l/m 2 min 0 min 710 W/m 12,9 km/h (3 Bft) 100,00 %
05.09.2023 15:22 30,1 C 28,9 C 23,3 C 52 % 1019,1 hPa 0,0 l/m 2 min 0 min 705 W/m 12,9 km/h (3 Bft) 100,00 %
05.09.2023 15:24 30,1 C 28,9 C 23,3 C 51 % 1019,1 hPa 0,0 l/m 2 min 0 min 702 W/m 12,9 km/h (3 Bft) 97,87 %
05.09.2023 15:26 30,1 C 28,9 C 23,3 C 52 % 1019,0 hPa 0,0 l/m 2 min 0 min 699 W/m 12,9 km/h (3 Bft) 97,87 %
05.09.2023 15:28 30,1 C 28,9 C 23,3 C 52 % 1019,0 hPa 0,0 l/m 2 min 0 min 697 W/m 16,1 km/h (3 Bft) 97,83 %
05.09.2023 15:30 30,1 C 28,9 C 23,3 C 52 % 1019,0 hPa 0,0 l/m 2 min 0 min 692 W/m 12,9 km/h (3 Bft) 95,74 %
05.09.2023 15:32 30,1 C 28,9 C 23,9 C 52 % 1018,9 hPa 0,0 l/m 2 min 0 min 689 W/m 12,9 km/h (3 Bft) 97,87 %
05.09.2023 15:34 30,1 C 29,4 C 23,3 C 52 % 1019,0 hPa 0,0 l/m 2 min 0 min 687 W/m 9,7 km/h (2 Bft) 97,87 %
05.09.2023 15:36 30,2 C 29,4 C 23,3 C 52 % 1019,0 hPa 0,0 l/m 2 min 0 min 683 W/m 12,9 km/h (3 Bft) 95,74 %
05.09.2023 15:38 30,2 C 29,4 C 23,9 C 51 % 1019,0 hPa 0,0 l/m 2 min 0 min 680 W/m 12,9 km/h (3 Bft) 97,87 %
05.09.2023 15:40 30,2 C 29,4 C 23,9 C 51 % 1019,0 hPa 0,0 l/m 2 min 0 min 675 W/m 16,1 km/h (3 Bft) 97,87 %
05.09.2023 15:42 30,2 C 29,4 C 23,3 C 51 % 1019,0 hPa 0,0 l/m 2 min 0 min 672 W/m 16,1 km/h (3 Bft) 97,87 %
05.09.2023 15:44 30,2 C 29,4 C 23,3 C 51 % 1018,9 hPa 0,0 l/m 2 min 0 min 668 W/m 9,7 km/h (2 Bft) 97,83 %
05.09.2023 15:46 30,2 C 29,4 C 23,3 C 51 % 1018,9 hPa 0,0 l/m 2 min 0 min 664 W/m 9,7 km/h (2 Bft) 97,87 %
05.09.2023 15:48 30,3 C 29,4 C 23,9 C 52 % 1018,8 hPa 0,0 l/m 2 min 0 min 660 W/m 9,7 km/h (2 Bft) 93,62 %
05.09.2023 15:50 30,3 C 29,4 C 23,9 C 52 % 1018,8 hPa 0,0 l/m 2 min 0 min 657 W/m 6,4 km/h (2 Bft) 95,74 %
05.09.2023 15:52 30,3 C 29,4 C 23,9 C 52 % 1018,8 hPa 0,0 l/m 2 min 0 min 654 W/m 9,7 km/h (2 Bft) 95,74 %
05.09.2023 15:54 30,3 C 30,0 C 23,9 C 51 % 1018,8 hPa 0,0 l/m 2 min 0 min 651 W/m 12,9 km/h (3 Bft) 95,74 %
05.09.2023 15:56 30,3 C 30,0 C 23,9 C 50 % 1018,7 hPa 0,0 l/m 2 min 0 min 647 W/m 16,1 km/h (3 Bft) 95,65 %
05.09.2023 15:58 30,3 C 29,4 C 23,9 C 50 % 1018,7 hPa 0,0 l/m 2 min 0 min 643 W/m 16,1 km/h (3 Bft) 95,74 %
05.09.2023 16:00 30,4 C 29,4 C 23,9 C 51 % 1018,7 hPa 0,0 l/m 2 min 0 min 639 W/m 12,9 km/h (3 Bft) 93,62 %
05.09.2023 16:02 30,4 C 29,4 C 23,9 C 50 % 1018,7 hPa 0,0 l/m 2 min 0 min 635 W/m 19,3 km/h (3 Bft) 93,62 %
05.09.2023 16:04 30,4 C 29,4 C 23,9 C 50 % 1018,8 hPa 0,0 l/m 2 min 0 min 631 W/m 16,1 km/h (3 Bft) 95,45 %
05.09.2023 16:06 30,4 C 28,9 C 23,9 C 50 % 1018,8 hPa 0,0 l/m 2 min 0 min 626 W/m 16,1 km/h (3 Bft) 93,62 %
05.09.2023 16:08 30,4 C 28,9 C 23,9 C 51 % 1018,7 hPa 0,0 l/m 2 min 0 min 622 W/m 12,9 km/h (3 Bft) 95,65 %
05.09.2023 16:10 30,4 C 28,9 C 23,9 C 52 % 1018,7 hPa 0,0 l/m 2 min 0 min 618 W/m 9,7 km/h (2 Bft) 95,74 %
05.09.2023 16:12 30,4 C 29,4 C 23,9 C 51 % 1018,7 hPa 0,0 l/m 2 min 0 min 614 W/m 6,4 km/h (2 Bft) 91,49 %
05.09.2023 16:14 30,4 C 29,4 C 23,9 C 51 % 1018,7 hPa 0,0 l/m 2 min 0 min 611 W/m 6,4 km/h (2 Bft) 97,87 %
05.09.2023 16:16 30,4 C 29,4 C 23,9 C 52 % 1018,7 hPa 0,0 l/m 2 min 0 min 606 W/m 6,4 km/h (2 Bft) 95,74 %
05.09.2023 16:18 30,5 C 29,4 C 23,9 C 52 % 1018,6 hPa 0,0 l/m 2 min 0 min 602 W/m 12,9 km/h (3 Bft) 97,87 %
05.09.2023 16:20 30,4 C 28,9 C 23,9 C 52 % 1018,7 hPa 0,0 l/m 2 min 0 min 599 W/m 16,1 km/h (3 Bft) 95,74 %
05.09.2023 16:22 30,5 C 29,4 C 23,9 C 52 % 1018,6 hPa 0,0 l/m 2 min 0 min 596 W/m 12,9 km/h (3 Bft) 95,65 %
05.09.2023 16:24 30,5 C 29,4 C 23,9 C 52 % 1018,6 hPa 0,0 l/m 2 min 0 min 590 W/m 9,7 km/h (2 Bft) 95,74 %
05.09.2023 16:26 30,5 C 29,4 C 23,9 C 52 % 1018,6 hPa 0,0 l/m 2 min 0 min 572 W/m 16,1 km/h (3 Bft) 97,87 %
05.09.2023 16:28 30,4 C 29,4 C 23,9 C 52 % 1018,6 hPa 0,0 l/m 2 min 0 min 545 W/m 9,7 km/h (2 Bft) 97,87 %
05.09.2023 16:30 30,4 C 29,4 C 23,9 C 52 % 1018,6 hPa 0,0 l/m 2 min 0 min 509 W/m 12,9 km/h (3 Bft) 95,74 %
05.09.2023 16:32 30,4 C 29,4 C 23,9 C 52 % 1018,6 hPa 0,0 l/m 2 min 0 min 509 W/m 9,7 km/h (2 Bft) 97,87 %
05.09.2023 16:34 30,4 C 29,4 C 23,9 C 52 % 1018,6 hPa 0,0 l/m 2 min 0 min 522 W/m 12,9 km/h (3 Bft) 97,87 %
05.09.2023 16:36 30,4 C 29,4 C 23,9 C 51 % 1018,6 hPa 0,0 l/m 2 min 0 min 563 W/m 12,9 km/h (3 Bft) 93,48 %
05.09.2023 16:38 30,4 C 30,0 C 23,9 C 52 % 1018,6 hPa 0,0 l/m 2 min 0 min 548 W/m 9,7 km/h (2 Bft) 97,87 %
05.09.2023 16:40 30,4 C 30,6 C 23,9 C 52 % 1018,6 hPa 0,0 l/m 2 min 0 min 557 W/m 9,7 km/h (2 Bft) 97,87 %
05.09.2023 16:42 30,4 C 31,1 C 23,9 C 52 % 1018,6 hPa 0,0 l/m 2 min 0 min 554 W/m 6,4 km/h (2 Bft) 97,87 %
05.09.2023 16:44 30,4 C 30,6 C 23,9 C 52 % 1018,6 hPa 0,0 l/m 2 min 0 min 549 W/m 9,7 km/h (2 Bft) 95,74 %
05.09.2023 16:46 30,4 C 31,7 C 23,9 C 51 % 1018,6 hPa 0,0 l/m 2 min 0 min 544 W/m 12,9 km/h (3 Bft) 95,74 %
05.09.2023 16:48 30,4 C 31,7 C 23,9 C 52 % 1018,6 hPa 0,0 l/m 2 min 0 min 535 W/m 6,4 km/h (2 Bft) 97,87 %
05.09.2023 16:50 30,4 C 31,1 C 24,4 C 52 % 1018,6 hPa 0,0 l/m 2 min 0 min 530 W/m 9,7 km/h (2 Bft) 95,65 %
05.09.2023 16:52 30,4 C 30,6 C 23,9 C 52 % 1018,6 hPa 0,0 l/m 2 min 0 min 527 W/m 6,4 km/h (2 Bft) 93,62 %
05.09.2023 16:54 30,4 C 30,6 C 24,4 C 52 % 1018,5 hPa 0,0 l/m 2 min 0 min 523 W/m 9,7 km/h (2 Bft) 95,74 %
05.09.2023 16:56 30,4 C 30,6 C 24,4 C 52 % 1018,5 hPa 0,0 l/m 2 min 0 min 510 W/m 9,7 km/h (2 Bft) 97,87 %
05.09.2023 16:58 30,4 C 30,6 C 24,4 C 51 % 1018,5 hPa 0,0 l/m 2 min 0 min 494 W/m 12,9 km/h (3 Bft) 97,87 %
05.09.2023 17:00 30,4 C 31,7 C 24,4 C 51 % 1018,5 hPa 0,0 l/m 2 min 0 min 463 W/m 9,7 km/h (2 Bft) 98,00 %
05.09.2023 17:02 30,4 C 31,7 C 24,4 C 51 % 1018,5 hPa 0,0 l/m 2 min 0 min 493 W/m 12,9 km/h (3 Bft) 97,73 %
05.09.2023 17:04 30,4 C 31,7 C 24,4 C 51 % 1018,5 hPa 0,0 l/m 2 min 0 min 490 W/m 12,9 km/h (3 Bft) 98,00 %
05.09.2023 17:06 30,5 C 31,1 C 24,4 C 51 % 1018,4 hPa 0,0 l/m 2 min 0 min 477 W/m 12,9 km/h (3 Bft) 95,83 %
05.09.2023 17:08 30,6 C 30,6 C 24,4 C 51 % 1018,4 hPa 0,0 l/m 2 min 0 min 468 W/m 12,9 km/h (3 Bft) 97,83 %
05.09.2023 17:10 30,6 C 30,6 C 24,4 C 51 % 1018,4 hPa 0,0 l/m 2 min 0 min 459 W/m 6,4 km/h (2 Bft) 97,87 %
05.09.2023 17:12 30,6 C 30,6 C 25,0 C 52 % 1018,4 hPa 0,0 l/m 2 min 0 min 458 W/m 12,9 km/h (3 Bft) 97,87 %
05.09.2023 17:14 30,6 C 30,6 C 24,4 C 51 % 1018,3 hPa 0,0 l/m 2 min 0 min 468 W/m 9,7 km/h (2 Bft) 97,87 %
05.09.2023 17:15 30,6 C 30,6 C 25,0 C 52 % 1018,3 hPa 0,0 l/m 1 min 0 min 466 W/m 12,9 km/h (3 Bft) 99,12 %
05.09.2023 17:18 30,6 C 31,1 C 25,0 C 52 % 1018,3 hPa 0,0 l/m 3 min 0 min 456 W/m 12,9 km/h (3 Bft) 95,83 %
05.09.2023 17:20 30,6 C 32,2 C 25,0 C 52 % 1018,3 hPa 0,0 l/m 2 min 0 min 452 W/m 9,7 km/h (2 Bft) 96,08 %
05.09.2023 17:22 30,7 C 32,8 C 25,0 C 52 % 1018,3 hPa 0,0 l/m 2 min 0 min 445 W/m 6,4 km/h (2 Bft) 95,74 %
05.09.2023 17:24 30,7 C 33,3 C 25,6 C 52 % 1018,2 hPa 0,0 l/m 2 min 0 min 439 W/m 16,1 km/h (3 Bft) 97,87 %
05.09.2023 17:26 30,7 C 33,3 C 25,6 C 52 % 1018,3 hPa 0,0 l/m 2 min 0 min 433 W/m 9,7 km/h (2 Bft) 91,49 %
05.09.2023 17:28 30,7 C 33,9 C 25,6 C 52 % 1018,3 hPa 0,0 l/m 2 min 0 min 428 W/m 6,4 km/h (2 Bft) 100,00 %
05.09.2023 17:30 30,8 C 33,9 C 25,6 C 52 % 1018,3 hPa 0,0 l/m 2 min 0 min 420 W/m 6,4 km/h (2 Bft) 95,74 %
05.09.2023 17:32 30,9 C 34,4 C 25,6 C 52 % 1018,3 hPa 0,0 l/m 2 min 0 min 416 W/m 6,4 km/h (2 Bft) 96,55 %
05.09.2023 17:34 30,9 C 34,4 C 25,6 C 52 % 1018,2 hPa 0,0 l/m 2 min 0 min 409 W/m 6,4 km/h (2 Bft) 100,00 %
05.09.2023 17:36 30,9 C 34,4 C 25,6 C 52 % 1018,3 hPa 0,0 l/m 2 min 0 min 404 W/m 12,9 km/h (3 Bft) 96,55 %
05.09.2023 17:38 30,9 C 34,4 C 25,6 C 52 % 1018,2 hPa 0,0 l/m 2 min 0 min 397 W/m 9,7 km/h (2 Bft) 100,00 %
05.09.2023 17:40 30,9 C 33,9 C 25,6 C 51 % 1018,2 hPa 0,0 l/m 2 min 0 min 393 W/m 9,7 km/h (2 Bft) 96,61 %
05.09.2023 17:42 30,9 C 33,9 C 25,6 C 52 % 1018,2 hPa 0,0 l/m 2 min 0 min 373 W/m 6,4 km/h (2 Bft) 100,00 %
05.09.2023 17:44 30,9 C 33,9 C 25,6 C 52 % 1018,2 hPa 0,0 l/m 2 min 0 min 358 W/m 9,7 km/h (2 Bft) 100,00 %
05.09.2023 17:46 30,8 C 33,9 C 25,6 C 52 % 1018,2 hPa 0,0 l/m 2 min 0 min 374 W/m 6,4 km/h (2 Bft) 97,22 %
05.09.2023 17:48 30,8 C 33,9 C 25,6 C 52 % 1018,2 hPa 0,0 l/m 2 min 0 min 368 W/m 9,7 km/h (2 Bft) 100,00 %
05.09.2023 17:50 30,8 C 33,9 C 25,6 C 53 % 1018,2 hPa 0,0 l/m 2 min 0 min 364 W/m 6,4 km/h (2 Bft) 100,00 %
05.09.2023 17:52 30,7 C 34,4 C 25,6 C 53 % 1018,3 hPa 0,0 l/m 2 min 0 min 351 W/m 6,4 km/h (2 Bft) 100,00 %
05.09.2023 17:54 30,8 C 34,4 C 25,6 C 53 % 1018,2 hPa 0,0 l/m 2 min 0 min 352 W/m 6,4 km/h (2 Bft) 100,00 %
05.09.2023 17:56 30,8 C 34,4 C 25,6 C 53 % 1018,3 hPa 0,0 l/m 2 min 0 min 344 W/m 6,4 km/h (2 Bft) 95,74 %
05.09.2023 17:58 30,8 C 34,4 C 25,6 C 53 % 1018,3 hPa 0,0 l/m 2 min 0 min 341 W/m 9,7 km/h (2 Bft) 100,00 %
05.09.2023 18:00 30,9 C 34,4 C 26,1 C 53 % 1018,3 hPa 0,0 l/m 2 min 0 min 324 W/m 9,7 km/h (2 Bft) 100,00 %
05.09.2023 18:02 30,9 C 34,4 C 26,1 C 53 % 1018,3 hPa 0,0 l/m 2 min 0 min 309 W/m 9,7 km/h (2 Bft) 97,83 %
05.09.2023 18:04 30,9 C 34,4 C 26,1 C 53 % 1018,3 hPa 0,0 l/m 2 min 0 min 320 W/m 6,4 km/h (2 Bft) 100,00 %
05.09.2023 18:08 30,9 C 33,9 C 25,6 C 54 % 1018,3 hPa 0,0 l/m 4 min 0 min 284 W/m 12,9 km/h (3 Bft) 98,94 %
05.09.2023 18:10 31,0 C 33,9 C 25,6 C 53 % 1018,3 hPa 0,0 l/m 2 min 0 min 270 W/m 6,4 km/h (2 Bft) 97,87 %
05.09.2023 18:12 30,9 C 33,3 C 25,6 C 53 % 1018,3 hPa 0,0 l/m 2 min 0 min 279 W/m 6,4 km/h (2 Bft) 97,83 %
05.09.2023 18:14 30,9 C 32,8 C 25,6 C 53 % 1018,3 hPa 0,0 l/m 2 min 0 min 277 W/m 0,0 km/h (0 Bft) 100,00 %
05.09.2023 18:16 30,9 C 32,8 C 25,6 C 53 % 1018,3 hPa 0,0 l/m 2 min 0 min 274 W/m 3,2 km/h (1 Bft) 100,00 %
05.09.2023 18:18 30,9 C 32,8 C 25,6 C 53 % 1018,3 hPa 0,0 l/m 2 min 0 min 264 W/m 6,4 km/h (2 Bft) 100,00 %
05.09.2023 18:20 30,9 C 32,8 C 25,6 C 53 % 1018,4 hPa 0,0 l/m 2 min 0 min 262 W/m 6,4 km/h (2 Bft) 100,00 %
05.09.2023 18:22 30,9 C 33,3 C 25,6 C 53 % 1018,3 hPa 0,0 l/m 2 min 0 min 249 W/m 6,4 km/h (2 Bft) 100,00 %
05.09.2023 18:24 30,9 C 33,3 C 25,0 C 52 % 1018,3 hPa 0,0 l/m 2 min 0 min 243 W/m 3,2 km/h (1 Bft) 100,00 %
05.09.2023 18:26 30,9 C 33,9 C 25,0 C 52 % 1018,3 hPa 0,0 l/m 2 min 0 min 234 W/m 6,4 km/h (2 Bft) 100,00 %
05.09.2023 18:28 30,8 C 33,9 C 25,6 C 53 % 1018,3 hPa 0,0 l/m 2 min 0 min 229 W/m 3,2 km/h (1 Bft) 97,87 %
05.09.2023 18:30 30,8 C 33,9 C 25,6 C 53 % 1018,3 hPa 0,0 l/m 2 min 0 min 226 W/m 6,4 km/h (2 Bft) 100,00 %
05.09.2023 18:32 30,8 C 33,9 C 25,0 C 52 % 1018,3 hPa 0,0 l/m 2 min 0 min 218 W/m 6,4 km/h (2 Bft) 100,00 %
05.09.2023 18:34 30,8 C 33,9 C 25,0 C 53 % 1018,3 hPa 0,0 l/m 2 min 0 min 210 W/m 6,4 km/h (2 Bft) 100,00 %
05.09.2023 18:36 30,7 C 33,9 C 24,4 C 52 % 1018,3 hPa 0,0 l/m 2 min 0 min 203 W/m 6,4 km/h (2 Bft) 100,00 %
05.09.2023 18:38 30,7 C 33,9 C 25,0 C 52 % 1018,3 hPa 0,0 l/m 2 min 0 min 195 W/m 6,4 km/h (2 Bft) 100,00 %
05.09.2023 18:40 30,7 C 33,9 C 25,0 C 52 % 1018,3 hPa 0,0 l/m 2 min 0 min 187 W/m 3,2 km/h (1 Bft) 97,83 %
05.09.2023 18:42 30,7 C 33,3 C 25,0 C 52 % 1018,3 hPa 0,0 l/m 2 min 0 min 180 W/m 12,9 km/h (3 Bft) 97,87 %
05.09.2023 18:44 30,6 C 33,3 C 25,0 C 53 % 1018,3 hPa 0,0 l/m 2 min 0 min 172 W/m 6,4 km/h (2 Bft) 100,00 %
05.09.2023 18:46 30,6 C 33,3 C 25,0 C 53 % 1018,3 hPa 0,0 l/m 2 min 0 min 165 W/m 6,4 km/h (2 Bft) 100,00 %
05.09.2023 18:48 30,4 C 31,7 C 25,0 C 52 % 1018,3 hPa 0,0 l/m 2 min 0 min 136 W/m 6,4 km/h (2 Bft) 97,87 %
05.09.2023 18:50 30,4 C 30,6 C 25,0 C 53 % 1018,3 hPa 0,0 l/m 0 min 0 min 46 W/m 6,4 km/h (2 Bft) 97,87 %
05.09.2023 18:52 30,3 C 30,0 C 25,0 C 53 % 1018,3 hPa 0,0 l/m 0 min 0 min 33 W/m 6,4 km/h (2 Bft) 95,65 %
05.09.2023 18:54 30,3 C 29,4 C 24,4 C 54 % 1018,3 hPa 0,0 l/m 0 min 0 min 33 W/m 6,4 km/h (2 Bft) 95,74 %
05.09.2023 18:56 30,2 C 28,9 C 24,4 C 54 % 1018,3 hPa 0,0 l/m 0 min 0 min 32 W/m 6,4 km/h (2 Bft) 95,74 %
05.09.2023 18:58 30,2 C 28,9 C 23,9 C 53 % 1018,4 hPa 0,0 l/m 0 min 0 min 32 W/m 3,2 km/h (1 Bft) 95,74 %
05.09.2023 19:00 30,1 C 28,3 C 23,9 C 53 % 1018,4 hPa 0,0 l/m 0 min 0 min 32 W/m 6,4 km/h (2 Bft) 93,62 %
05.09.2023 19:02 29,9 C 28,3 C 23,9 C 54 % 1018,4 hPa 0,0 l/m 0 min 0 min 30 W/m 6,4 km/h (2 Bft) 93,62 %
05.09.2023 19:04 29,9 C 28,3 C 23,9 C 54 % 1018,4 hPa 0,0 l/m 0 min 0 min 30 W/m 6,4 km/h (2 Bft) 96,08 %
05.09.2023 19:06 29,7 C 27,8 C 23,3 C 55 % 1018,4 hPa 0,0 l/m 0 min 0 min 30 W/m 3,2 km/h (1 Bft) 96,61 %
05.09.2023 19:08 29,6 C 27,8 C 23,3 C 55 % 1018,4 hPa 0,0 l/m 0 min 0 min 29 W/m 3,2 km/h (1 Bft) 94,29 %
05.09.2023 19:10 29,4 C 27,8 C 23,3 C 55 % 1018,4 hPa 0,0 l/m 0 min 0 min 28 W/m 3,2 km/h (1 Bft) 95,74 %
05.09.2023 19:12 29,3 C 27,8 C 23,3 C 55 % 1018,4 hPa 0,0 l/m 0 min 0 min 28 W/m 3,2 km/h (1 Bft) 95,74 %
05.09.2023 19:14 29,2 C 27,2 C 22,8 C 55 % 1018,4 hPa 0,0 l/m 0 min 0 min 26 W/m 3,2 km/h (1 Bft) 95,74 %
05.09.2023 19:16 29,1 C 27,2 C 22,8 C 56 % 1018,5 hPa 0,0 l/m 0 min 0 min 26 W/m 3,2 km/h (1 Bft) 93,62 %
05.09.2023 19:18 28,9 C 27,2 C 22,8 C 56 % 1018,4 hPa 0,0 l/m 0 min 0 min 25 W/m 3,2 km/h (1 Bft) 95,65 %
05.09.2023 19:20 28,8 C 27,2 C 22,8 C 56 % 1018,4 hPa 0,0 l/m 0 min 0 min 25 W/m 6,4 km/h (2 Bft) 95,74 %
05.09.2023 19:22 28,7 C 27,2 C 22,8 C 56 % 1018,4 hPa 0,0 l/m 0 min 0 min 23 W/m 6,4 km/h (2 Bft) 97,87 %
05.09.2023 19:24 28,6 C 26,7 C 22,8 C 57 % 1018,4 hPa 0,0 l/m 0 min 0 min 21 W/m 3,2 km/h (1 Bft) 97,87 %
05.09.2023 19:26 28,4 C 26,7 C 22,2 C 57 % 1018,5 hPa 0,0 l/m 0 min 0 min 20 W/m 3,2 km/h (1 Bft) 95,74 %
05.09.2023 19:28 28,3 C 26,7 C 22,2 C 57 % 1018,5 hPa 0,0 l/m 0 min 0 min 19 W/m 3,2 km/h (1 Bft) 97,87 %
05.09.2023 19:30 28,2 C 26,7 C 22,2 C 57 % 1018,5 hPa 0,0 l/m 0 min 0 min 18 W/m 3,2 km/h (1 Bft) 97,87 %
05.09.2023 19:32 28,1 C 26,7 C 22,2 C 58 % 1018,5 hPa 0,0 l/m 0 min 0 min 17 W/m 6,4 km/h (2 Bft) 100,00 %
05.09.2023 19:34 27,9 C 26,1 C 21,7 C 58 % 1018,5 hPa 0,0 l/m 0 min 0 min 16 W/m 3,2 km/h (1 Bft) 97,87 %
05.09.2023 19:36 27,8 C 26,1 C 21,7 C 59 % 1018,5 hPa 0,0 l/m 0 min 0 min 15 W/m 3,2 km/h (1 Bft) 100,00 %
05.09.2023 19:38 27,7 C 26,1 C 21,7 C 59 % 1018,5 hPa 0,0 l/m 0 min 0 min 14 W/m 3,2 km/h (1 Bft) 100,00 %
05.09.2023 19:40 27,6 C 25,6 C 21,1 C 60 % 1018,5 hPa 0,0 l/m 0 min 0 min 14 W/m 3,2 km/h (1 Bft) 100,00 %
05.09.2023 19:42 27,6 C 25,6 C 21,1 C 60 % 1018,6 hPa 0,0 l/m 0 min 0 min 12 W/m 3,2 km/h (1 Bft) 100,00 %
05.09.2023 19:44 27,4 C 25,6 C 21,1 C 61 % 1018,6 hPa 0,0 l/m 0 min 0 min 12 W/m 3,2 km/h (1 Bft) 95,65 %
05.09.2023 19:46 27,3 C 25,6 C 21,1 C 60 % 1018,6 hPa 0,0 l/m 0 min 0 min 12 W/m 3,2 km/h (1 Bft) 97,87 %
05.09.2023 19:48 27,2 C 25,0 C 20,6 C 61 % 1018,6 hPa 0,0 l/m 0 min 0 min 11 W/m 3,2 km/h (1 Bft) 100,00 %
05.09.2023 19:50 27,1 C 25,0 C 20,6 C 61 % 1018,6 hPa 0,0 l/m 0 min 0 min 11 W/m 3,2 km/h (1 Bft) 100,00 %
05.09.2023 19:52 26,9 C 25,0 C 20,6 C 62 % 1018,6 hPa 0,0 l/m 0 min 0 min 11 W/m 3,2 km/h (1 Bft) 97,87 %
05.09.2023 19:54 26,8 C 25,0 C 20,6 C 62 % 1018,6 hPa 0,0 l/m 0 min 0 min 9 W/m 3,2 km/h (1 Bft) 97,87 %
05.09.2023 19:56 26,8 C 25,0 C 20,6 C 61 % 1018,6 hPa 0,0 l/m 0 min 0 min 9 W/m 3,2 km/h (1 Bft) 100,00 %
05.09.2023 19:58 26,7 C 25,0 C 20,6 C 61 % 1018,6 hPa 0,0 l/m 0 min 0 min 9 W/m 3,2 km/h (1 Bft) 100,00 %
05.09.2023 20:00 26,6 C 25,0 C 20,6 C 61 % 1018,6 hPa 0,0 l/m 0 min 0 min 7 W/m 3,2 km/h (1 Bft) 100,00 %
05.09.2023 20:02 26,5 C 25,0 C 20,6 C 61 % 1018,7 hPa 0,0 l/m 0 min 0 min 7 W/m 3,2 km/h (1 Bft) 100,00 %
05.09.2023 20:04 26,4 C 25,0 C 20,6 C 61 % 1018,7 hPa 0,0 l/m 0 min 0 min 7 W/m 3,2 km/h (1 Bft) 97,92 %
05.09.2023 20:06 26,3 C 25,0 C 20,6 C 61 % 1018,7 hPa 0,0 l/m 0 min 0 min 5 W/m 6,4 km/h (2 Bft) 98,33 %
05.09.2023 20:08 26,3 C 25,0 C 20,6 C 61 % 1018,8 hPa 0,0 l/m 0 min 0 min 5 W/m 3,2 km/h (1 Bft) 97,14 %
05.09.2023 20:10 26,2 C 24,4 C 20,6 C 62 % 1018,8 hPa 0,0 l/m 0 min 0 min 5 W/m 6,4 km/h (2 Bft) 97,87 %
05.09.2023 20:12 26,1 C 24,4 C 20,6 C 62 % 1018,7 hPa 0,0 l/m 0 min 0 min 2 W/m 3,2 km/h (1 Bft) 97,87 %
05.09.2023 20:14 26,0 C 24,4 C 20,6 C 62 % 1018,8 hPa 0,0 l/m 0 min 0 min 0 W/m 3,2 km/h (1 Bft) 97,83 %
05.09.2023 20:16 25,9 C 24,4 C 20,6 C 62 % 1018,8 hPa 0,0 l/m 0 min 0 min 0 W/m 3,2 km/h (1 Bft) 97,87 %
05.09.2023 20:18 25,9 C 24,4 C 20,6 C 63 % 1018,8 hPa 0,0 l/m 0 min 0 min 0 W/m 3,2 km/h (1 Bft) 97,87 %
05.09.2023 20:20 25,8 C 24,4 C 20,6 C 63 % 1018,8 hPa 0,0 l/m 0 min 0 min 0 W/m 3,2 km/h (1 Bft) 97,87 %
05.09.2023 20:22 25,7 C 23,9 C 20,0 C 63 % 1018,8 hPa 0,0 l/m 0 min 0 min 0 W/m 3,2 km/h (1 Bft) 97,87 %
05.09.2023 20:24 25,7 C 23,9 C 20,0 C 64 % 1018,9 hPa 0,0 l/m 0 min 0 min 0 W/m 3,2 km/h (1 Bft) 97,87 %
05.09.2023 20:26 25,6 C 23,9 C 20,0 C 64 % 1018,9 hPa 0,0 l/m 0 min 0 min 0 W/m 3,2 km/h (1 Bft) 97,87 %
05.09.2023 20:28 25,6 C 23,9 C 20,0 C 64 % 1018,9 hPa 0,0 l/m 0 min 0 min 0 W/m 3,2 km/h (1 Bft) 97,83 %
05.09.2023 20:30 25,5 C 23,9 C 20,0 C 64 % 1018,8 hPa 0,0 l/m 0 min 0 min 0 W/m 3,2 km/h (1 Bft) 97,87 %
05.09.2023 20:32 25,4 C 23,9 C 20,0 C 64 % 1018,9 hPa 0,0 l/m 0 min 0 min 0 W/m 3,2 km/h (1 Bft) 97,87 %
05.09.2023 20:34 25,3 C 23,9 C 20,0 C 64 % 1018,8 hPa 0,0 l/m 0 min 0 min 0 W/m 3,2 km/h (1 Bft) 95,74 %
05.09.2023 20:36 25,3 C 23,9 C 19,4 C 65 % 1018,9 hPa 0,0 l/m 0 min 0 min 0 W/m 3,2 km/h (1 Bft) 95,74 %
05.09.2023 20:38 25,2 C 23,9 C 19,4 C 65 % 1018,9 hPa 0,0 l/m 0 min 0 min 0 W/m 3,2 km/h (1 Bft) 97,87 %
05.09.2023 20:40 25,2 C 23,9 C 19,4 C 65 % 1018,9 hPa 0,0 l/m 0 min 0 min 0 W/m 3,2 km/h (1 Bft) 97,87 %
05.09.2023 20:42 25,1 C 23,3 C 19,4 C 65 % 1018,8 hPa 0,0 l/m 0 min 0 min 0 W/m 3,2 km/h (1 Bft) 97,83 %
05.09.2023 20:44 25,1 C 23,3 C 19,4 C 65 % 1018,9 hPa 0,0 l/m 0 min 0 min 0 W/m 0,0 km/h (0 Bft) 97,87 %
05.09.2023 20:46 25,1 C 23,3 C 19,4 C 65 % 1018,8 hPa 0,0 l/m 0 min 0 min 0 W/m 0,0 km/h (0 Bft) 97,87 %
05.09.2023 20:48 25,0 C 23,3 C 19,4 C 66 % 1018,8 hPa 0,0 l/m 0 min 0 min 0 W/m 0,0 km/h (0 Bft) 95,74 %
05.09.2023 20:50 24,9 C 23,3 C 19,4 C 66 % 1018,8 hPa 0,0 l/m 0 min 0 min 0 W/m 0,0 km/h (0 Bft) 95,74 %
05.09.2023 20:52 24,8 C 23,3 C 19,4 C 66 % 1018,8 hPa 0,0 l/m 0 min 0 min 0 W/m 0,0 km/h (0 Bft) 93,62 %
05.09.2023 20:54 24,8 C 23,3 C 19,4 C 66 % 1018,8 hPa 0,0 l/m 0 min 0 min 0 W/m 0,0 km/h (0 Bft) 93,48 %
05.09.2023 20:56 24,7 C 23,3 C 19,4 C 66 % 1018,8 hPa 0,0 l/m 0 min 0 min 0 W/m 0,0 km/h (0 Bft) 95,74 %
05.09.2023 20:58 24,6 C 23,3 C 18,9 C 67 % 1018,8 hPa 0,0 l/m 0 min 0 min 0 W/m 0,0 km/h (0 Bft) 93,62 %
05.09.2023 21:00 24,6 C 23,3 C 18,9 C 67 % 1018,8 hPa 0,0 l/m 0 min 0 min 0 W/m 0,0 km/h (0 Bft) 95,74 %
05.09.2023 21:02 24,5 C 23,3 C 18,9 C 67 % 1018,8 hPa 0,0 l/m 0 min 0 min 0 W/m 0,0 km/h (0 Bft) 95,74 %
05.09.2023 21:04 24,4 C 23,3 C 18,9 C 67 % 1018,9 hPa 0,0 l/m 0 min 0 min 0 W/m 0,0 km/h (0 Bft) 97,56 %
05.09.2023 21:06 24,4 C 22,8 C 18,9 C 68 % 1018,9 hPa 0,0 l/m 0 min 0 min 0 W/m 0,0 km/h (0 Bft) 96,36 %
05.09.2023 21:08 24,3 C 22,8 C 18,9 C 68 % 1019,0 hPa 0,0 l/m 0 min 0 min 0 W/m 0,0 km/h (0 Bft) 100,00 %
05.09.2023 21:10 24,3 C 22,8 C 18,9 C 68 % 1018,9 hPa 0,0 l/m 0 min 0 min 0 W/m 0,0 km/h (0 Bft) 95,74 %
05.09.2023 21:12 24,2 C 22,8 C 18,3 C 68 % 1018,9 hPa 0,0 l/m 0 min 0 min 0 W/m 0,0 km/h (0 Bft) 95,74 %
05.09.2023 21:14 24,2 C 22,2 C 18,3 C 69 % 1018,9 hPa 0,0 l/m 0 min 0 min 0 W/m 0,0 km/h (0 Bft) 97,87 %
05.09.2023 21:16 24,1 C 22,2 C 18,3 C 69 % 1018,9 hPa 0,0 l/m 0 min 0 min 0 W/m 0,0 km/h (0 Bft) 97,87 %
05.09.2023 21:18 24,1 C 22,2 C 18,3 C 69 % 1019,0 hPa 0,0 l/m 0 min 0 min 0 W/m 0,0 km/h (0 Bft) 100,00 %
05.09.2023 21:20 24,0 C 22,2 C 18,3 C 70 % 1018,9 hPa 0,0 l/m 0 min 0 min 0 W/m 0,0 km/h (0 Bft) 100,00 %
05.09.2023 21:22 23,9 C 22,2 C 18,3 C 70 % 1018,9 hPa 0,0 l/m 0 min 0 min 0 W/m 0,0 km/h (0 Bft) 100,00 %
05.09.2023 21:24 23,8 C 22,2 C 18,3 C 70 % 1018,9 hPa 0,0 l/m 0 min 0 min 0 W/m 0,0 km/h (0 Bft) 100,00 %
05.09.2023 21:26 23,8 C 22,2 C 18,3 C 70 % 1018,9 hPa 0,0 l/m 0 min 0 min 0 W/m 0,0 km/h (0 Bft) 97,87 %
05.09.2023 21:28 23,7 C 22,2 C 18,3 C 70 % 1019,0 hPa 0,0 l/m 0 min 0 min 0 W/m 0,0 km/h (0 Bft) 97,87 %
05.09.2023 21:30 23,7 C 22,2 C 18,3 C 70 % 1019,0 hPa 0,0 l/m 0 min 0 min 0 W/m 0,0 km/h (0 Bft) 97,87 %
05.09.2023 21:32 23,6 C 22,2 C 18,3 C 70 % 1019,0 hPa 0,0 l/m 0 min 0 min 0 W/m 0,0 km/h (0 Bft) 97,87 %
05.09.2023 21:34 23,6 C 22,2 C 18,3 C 70 % 1019,0 hPa 0,0 l/m 0 min 0 min 0 W/m 0,0 km/h (0 Bft) 95,74 %
05.09.2023 21:36 23,6 C 22,2 C 18,3 C 70 % 1019,0 hPa 0,0 l/m 0 min 0 min 0 W/m 0,0 km/h (0 Bft) 97,83 %
05.09.2023 21:38 23,6 C 22,2 C 18,9 C 70 % 1019,0 hPa 0,0 l/m 0 min 0 min 0 W/m 0,0 km/h (0 Bft) 93,62 %
05.09.2023 21:40 23,5 C 22,8 C 18,9 C 70 % 1019,0 hPa 0,0 l/m 0 min 0 min 0 W/m 0,0 km/h (0 Bft) 95,74 %
05.09.2023 21:42 23,5 C 22,8 C 18,9 C 70 % 1019,0 hPa 0,0 l/m 0 min 0 min 0 W/m 0,0 km/h (0 Bft) 97,87 %
05.09.2023 21:44 23,5 C 22,8 C 18,9 C 70 % 1019,0 hPa 0,0 l/m 0 min 0 min 0 W/m 0,0 km/h (0 Bft) 97,87 %
05.09.2023 21:46 23,4 C 22,8 C 18,9 C 70 % 1019,0 hPa 0,0 l/m 0 min 0 min 0 W/m 0,0 km/h (0 Bft) 95,74 %
05.09.2023 21:48 23,4 C 22,8 C 18,9 C 70 % 1018,9 hPa 0,0 l/m 0 min 0 min 0 W/m 0,0 km/h (0 Bft) 97,87 %
05.09.2023 21:50 23,4 C 22,2 C 18,9 C 71 % 1018,9 hPa 0,0 l/m 0 min 0 min 0 W/m 0,0 km/h (0 Bft) 95,65 %
05.09.2023 21:52 23,4 C 22,2 C 18,9 C 70 % 1018,9 hPa 0,0 l/m 0 min 0 min 0 W/m 0,0 km/h (0 Bft) 97,87 %
05.09.2023 21:54 23,4 C 22,2 C 18,9 C 71 % 1019,0 hPa 0,0 l/m 0 min 0 min 0 W/m 0,0 km/h (0 Bft) 97,87 %
05.09.2023 21:56 23,4 C 22,2 C 18,9 C 70 % 1019,0 hPa 0,0 l/m 0 min 0 min 0 W/m 0,0 km/h (0 Bft) 95,74 %
05.09.2023 21:58 23,4 C 22,2 C 18,9 C 70 % 1019,0 hPa 0,0 l/m 0 min 0 min 0 W/m 0,0 km/h (0 Bft) 97,87 %
05.09.2023 22:00 23,4 C 22,8 C 18,9 C 70 % 1019,0 hPa 0,0 l/m 0 min 0 min 0 W/m 0,0 km/h (0 Bft) 95,74 %
05.09.2023 22:02 23,4 C 22,8 C 18,9 C 70 % 1019,0 hPa 0,0 l/m 0 min 0 min 0 W/m 0,0 km/h (0 Bft) 95,65 %
05.09.2023 22:04 23,4 C 22,8 C 18,9 C 70 % 1019,0 hPa 0,0 l/m 0 min 0 min 0 W/m 0,0 km/h (0 Bft) 97,87 %
05.09.2023 22:06 23,4 C 22,8 C 18,9 C 70 % 1019,0 hPa 0,0 l/m 0 min 0 min 0 W/m 0,0 km/h (0 Bft) 98,33 %
05.09.2023 22:08 23,4 C 22,8 C 18,9 C 70 % 1019,0 hPa 0,0 l/m 0 min 0 min 0 W/m 0,0 km/h (0 Bft) 97,14 %
05.09.2023 22:10 23,4 C 22,8 C 18,9 C 70 % 1019,0 hPa 0,0 l/m 0 min 0 min 0 W/m 0,0 km/h (0 Bft) 97,87 %
05.09.2023 22:12 23,4 C 22,8 C 18,9 C 70 % 1018,9 hPa 0,0 l/m 0 min 0 min 0 W/m 0,0 km/h (0 Bft) 100,00 %
05.09.2023 22:14 23,4 C 22,2 C 18,9 C 70 % 1018,9 hPa 0,0 l/m 0 min 0 min 0 W/m 0,0 km/h (0 Bft) 97,87 %
05.09.2023 22:16 23,3 C 22,2 C 18,9 C 70 % 1019,0 hPa 0,0 l/m 0 min 0 min 0 W/m 0,0 km/h (0 Bft) 97,83 %
05.09.2023 22:18 23,3 C 22,2 C 18,9 C 71 % 1019,0 hPa 0,0 l/m 0 min 0 min 0 W/m 0,0 km/h (0 Bft) 100,00 %
05.09.2023 22:20 23,3 C 22,8 C 18,9 C 70 % 1019,0 hPa 0,0 l/m 0 min 0 min 0 W/m 0,0 km/h (0 Bft) 100,00 %
05.09.2023 22:22 23,3 C 22,8 C 18,9 C 70 % 1019,0 hPa 0,0 l/m 0 min 0 min 0 W/m 0,0 km/h (0 Bft) 97,87 %
05.09.2023 22:24 23,3 C 22,8 C 18,9 C 70 % 1019,0 hPa 0,0 l/m 0 min 0 min 0 W/m 0,0 km/h (0 Bft) 97,87 %
05.09.2023 22:26 23,3 C 22,8 C 18,9 C 70 % 1018,9 hPa 0,0 l/m 0 min 0 min 0 W/m 0,0 km/h (0 Bft) 97,87 %
05.09.2023 22:28 23,4 C 22,8 C 18,9 C 70 % 1018,9 hPa 0,0 l/m 0 min 0 min 0 W/m 6,4 km/h (2 Bft) 100,00 %
05.09.2023 22:30 23,3 C 22,8 C 18,9 C 70 % 1018,9 hPa 0,0 l/m 0 min 0 min 0 W/m 3,2 km/h (1 Bft) 97,87 %
05.09.2023 22:32 23,3 C 22,8 C 18,9 C 70 % 1018,9 hPa 0,0 l/m 0 min 0 min 0 W/m 6,4 km/h (2 Bft) 97,87 %
05.09.2023 22:34 23,4 C 22,8 C 18,9 C 70 % 1018,8 hPa 0,0 l/m 0 min 0 min 0 W/m 6,4 km/h (2 Bft) 100,00 %
05.09.2023 22:36 23,4 C 22,8 C 18,9 C 70 % 1018,8 hPa 0,0 l/m 0 min 0 min 0 W/m 6,4 km/h (2 Bft) 97,87 %
05.09.2023 22:38 23,4 C 22,8 C 18,9 C 70 % 1018,8 hPa 0,0 l/m 0 min 0 min 0 W/m 6,4 km/h (2 Bft) 100,00 %
05.09.2023 22:40 23,4 C 22,8 C 18,9 C 70 % 1018,9 hPa 0,0 l/m 0 min 0 min 0 W/m 12,9 km/h (3 Bft) 100,00 %
05.09.2023 22:42 23,4 C 22,8 C 18,9 C 70 % 1018,8 hPa 0,0 l/m 0 min 0 min 0 W/m 6,4 km/h (2 Bft) 91,49 %
05.09.2023 22:44 23,4 C 22,8 C 18,9 C 70 % 1019,0 hPa 0,0 l/m 0 min 0 min 0 W/m 12,9 km/h (3 Bft) 97,87 %
05.09.2023 22:46 23,4 C 22,8 C 18,9 C 70 % 1019,0 hPa 0,0 l/m 0 min 0 min 0 W/m 6,4 km/h (2 Bft) 97,87 %
05.09.2023 22:48 23,4 C 22,8 C 18,9 C 70 % 1019,0 hPa 0,0 l/m 0 min 0 min 0 W/m 12,9 km/h (3 Bft) 97,87 %
05.09.2023 22:50 23,4 C 22,8 C 18,9 C 70 % 1019,0 hPa 0,0 l/m 0 min 0 min 0 W/m 6,4 km/h (2 Bft) 95,74 %
05.09.2023 22:52 23,4 C 22,8 C 18,9 C 70 % 1019,0 hPa 0,0 l/m 0 min 0 min 0 W/m 12,9 km/h (3 Bft) 97,83 %
05.09.2023 22:54 23,4 C 22,2 C 18,9 C 70 % 1019,0 hPa 0,0 l/m 0 min 0 min 0 W/m 12,9 km/h (3 Bft) 97,87 %
05.09.2023 22:56 23,4 C 22,2 C 18,9 C 70 % 1019,0 hPa 0,0 l/m 0 min 0 min 0 W/m 6,4 km/h (2 Bft) 97,87 %
05.09.2023 22:58 23,4 C 22,2 C 18,9 C 70 % 1019,0 hPa 0,0 l/m 0 min 0 min 0 W/m 12,9 km/h (3 Bft) 95,74 %
05.09.2023 23:00 23,4 C 22,2 C 18,9 C 70 % 1019,0 hPa 0,0 l/m 0 min 0 min 0 W/m 9,7 km/h (2 Bft) 97,87 %
05.09.2023 23:02 23,4 C 22,2 C 18,9 C 71 % 1019,0 hPa 0,0 l/m 0 min 0 min 0 W/m 9,7 km/h (2 Bft) 97,92 %
05.09.2023 23:04 23,3 C 22,2 C 18,3 C 71 % 1019,1 hPa 0,0 l/m 0 min 0 min 0 W/m 6,4 km/h (2 Bft) 95,24 %
05.09.2023 23:06 23,3 C 22,2 C 18,3 C 71 % 1019,1 hPa 0,0 l/m 0 min 0 min 0 W/m 6,4 km/h (2 Bft) 95,31 %
05.09.2023 23:08 23,3 C 22,2 C 18,3 C 71 % 1019,1 hPa 0,0 l/m 0 min 0 min 0 W/m 6,4 km/h (2 Bft) 93,33 %
05.09.2023 23:10 23,3 C 22,2 C 18,3 C 71 % 1019,0 hPa 0,0 l/m 0 min 0 min 0 W/m 6,4 km/h (2 Bft) 95,74 %
05.09.2023 23:12 23,3 C 22,2 C 18,3 C 71 % 1019,1 hPa 0,0 l/m 0 min 0 min 0 W/m 6,4 km/h (2 Bft) 95,74 %
05.09.2023 23:14 23,3 C 22,2 C 18,3 C 71 % 1019,1 hPa 0,0 l/m 0 min 0 min 0 W/m 6,4 km/h (2 Bft) 97,83 %
05.09.2023 23:16 23,2 C 22,2 C 18,3 C 71 % 1019,2 hPa 0,0 l/m 0 min 0 min 0 W/m 6,4 km/h (2 Bft) 97,87 %
05.09.2023 23:18 23,2 C 22,2 C 18,3 C 71 % 1019,2 hPa 0,0 l/m 0 min 0 min 0 W/m 6,4 km/h (2 Bft) 97,87 %
05.09.2023 23:20 23,2 C 22,2 C 18,3 C 71 % 1019,2 hPa 0,0 l/m 0 min 0 min 0 W/m 3,2 km/h (1 Bft) 97,87 %
05.09.2023 23:22 23,1 C 22,2 C 18,3 C 71 % 1019,2 hPa 0,0 l/m 0 min 0 min 0 W/m 0,0 km/h (0 Bft) 97,87 %
05.09.2023 23:24 23,1 C 21,7 C 18,3 C 71 % 1019,2 hPa 0,0 l/m 0 min 0 min 0 W/m 0,0 km/h (0 Bft) 100,00 %
05.09.2023 23:26 23,1 C 21,7 C 18,3 C 71 % 1019,2 hPa 0,0 l/m 0 min 0 min 0 W/m 0,0 km/h (0 Bft) 97,83 %
05.09.2023 23:28 23,0 C 21,7 C 18,3 C 71 % 1019,2 hPa 0,0 l/m 0 min 0 min 0 W/m 0,0 km/h (0 Bft) 97,87 %
05.09.2023 23:30 23,0 C 21,7 C 17,8 C 71 % 1019,2 hPa 0,0 l/m 0 min 0 min 0 W/m 0,0 km/h (0 Bft) 95,74 %
05.09.2023 23:32 22,9 C 21,7 C 17,8 C 72 % 1019,2 hPa 0,0 l/m 0 min 0 min 0 W/m 0,0 km/h (0 Bft) 95,74 %
05.09.2023 23:34 22,9 C 21,7 C 17,8 C 72 % 1019,2 hPa 0,0 l/m 0 min 0 min 0 W/m 0,0 km/h (0 Bft) 95,74 %
05.09.2023 23:36 22,9 C 21,7 C 17,8 C 72 % 1019,2 hPa 0,0 l/m 0 min 0 min 0 W/m 0,0 km/h (0 Bft) 97,87 %
05.09.2023 23:38 22,8 C 21,7 C 17,8 C 72 % 1019,2 hPa 0,0 l/m 0 min 0 min 0 W/m 6,4 km/h (2 Bft) 97,87 %
05.09.2023 23:40 22,8 C 21,7 C 17,8 C 72 % 1019,2 hPa 0,0 l/m 0 min 0 min 0 W/m 3,2 km/h (1 Bft) 97,83 %
05.09.2023 23:42 22,7 C 21,7 C 17,8 C 72 % 1019,2 hPa 0,0 l/m 0 min 0 min 0 W/m 0,0 km/h (0 Bft) 97,87 %
05.09.2023 23:44 22,7 C 21,7 C 17,8 C 72 % 1019,2 hPa 0,0 l/m 0 min 0 min 0 W/m 0,0 km/h (0 Bft) 97,87 %
05.09.2023 23:46 22,7 C 21,1 C 17,8 C 72 % 1019,2 hPa 0,0 l/m 0 min 0 min 0 W/m 6,4 km/h (2 Bft) 97,87 %
05.09.2023 23:48 22,7 C 21,1 C 17,8 C 72 % 1019,2 hPa 0,0 l/m 0 min 0 min 0 W/m 6,4 km/h (2 Bft) 97,87 %
05.09.2023 23:50 22,7 C 21,1 C 17,8 C 72 % 1019,2 hPa 0,0 l/m 0 min 0 min 0 W/m 6,4 km/h (2 Bft) 97,87 %
05.09.2023 23:52 22,6 C 21,1 C 17,8 C 72 % 1019,2 hPa 0,0 l/m 0 min 0 min 0 W/m 3,2 km/h (1 Bft) 95,74 %
05.09.2023 23:54 22,6 C 21,1 C 17,8 C 72 % 1019,1 hPa 0,0 l/m 0 min 0 min 0 W/m 3,2 km/h (1 Bft) 97,96 %
05.09.2023 23:55 22,6 C 21,1 C 17,8 C 72 % 1019,1 hPa 0,0 l/m 0 min 0 min 0 W/m 6,4 km/h (2 Bft) 100,00 %
_ Min-Zeit 07:30 07:06 06:40 15:56 17:24 - - - - 06:52 07:36
Minimum _ 17,9 C 16,7 C 13,3 C 50 % 1018,2 hPa - - - - 0,0 km/h (0 Bft) 44,44 %
_ Max-Zeit 18:10 14:12 18:00 07:32 00:00 00:00 12:00 00:00 14:06 10:04 00:08
Maximum _ 31,0 C 35,6 C 26,1 C 77 % 1021,4 hPa 0,0 l/m 4 min 0 min 780 W/m 35,4 km/h
O (5 Bft)
100,00 %
Durchschnitt _ 23,8 C 23,5 C 18,7 C 65 % 1019,8 hPa #0,0 l/m #6:58 h #0 min. 311 W/m 9,5 km/h (2 Bft) 97,49 %
© 2023 W. Hausmann